Wetterdaten: Freitag, 27.05.2022
Datum Zeit Temp. Aussen Temp. o. S. Temp +5cm Feuchte Auss Luftdruck Regen Sonnenschein Regendauer Solar Windben Empfang
27.05.2022 00:00 16,2 C 15,6 C 12,2 C 78 % 1021,2 hPa 0,0 l/m 0 min 0 min 0 W/m 16,1 km/h (3 Bft) 97,87 %
27.05.2022 00:02 16,2 C 15,6 C 12,2 C 78 % 1021,2 hPa 0,0 l/m 0 min 0 min 0 W/m 12,9 km/h (3 Bft) 97,56 %
27.05.2022 00:04 16,2 C 15,6 C 12,2 C 78 % 1021,2 hPa 0,0 l/m 0 min 0 min 0 W/m 16,1 km/h (3 Bft) 97,87 %
27.05.2022 00:08 16,2 C 15,6 C 12,2 C 78 % 1021,2 hPa 0,0 l/m 0 min 0 min 0 W/m 19,3 km/h (3 Bft) 97,87 %
27.05.2022 00:10 16,1 C 15,6 C 12,2 C 79 % 1021,2 hPa 0,0 l/m 0 min 0 min 0 W/m 22,5 km/h (4 Bft) 97,87 %
27.05.2022 00:12 16,1 C 15,6 C 12,2 C 79 % 1021,1 hPa 0,0 l/m 0 min 0 min 0 W/m 16,1 km/h (3 Bft) 95,74 %
27.05.2022 00:14 16,1 C 15,6 C 12,2 C 79 % 1021,1 hPa 0,0 l/m 0 min 0 min 0 W/m 19,3 km/h (3 Bft) 95,65 %
27.05.2022 00:16 16,1 C 15,6 C 12,2 C 79 % 1021,0 hPa 0,0 l/m 0 min 0 min 0 W/m 19,3 km/h (3 Bft) 95,74 %
27.05.2022 00:18 16,1 C 15,0 C 12,2 C 79 % 1021,1 hPa 0,0 l/m 0 min 0 min 0 W/m 16,1 km/h (3 Bft) 68,09 %
27.05.2022 00:20 16,0 C 15,0 C 12,2 C 79 % 1021,0 hPa 0,0 l/m 0 min 0 min 0 W/m 19,3 km/h (3 Bft) 85,00 %
27.05.2022 00:22 16,0 C 15,0 C 11,7 C 79 % 1021,1 hPa 0,0 l/m 0 min 0 min 0 W/m 19,3 km/h (3 Bft) 97,87 %
27.05.2022 00:24 16,0 C 15,0 C 11,7 C 79 % 1021,2 hPa 0,0 l/m 0 min 0 min 0 W/m 22,5 km/h (4 Bft) 97,87 %
27.05.2022 00:26 15,9 C 15,0 C 11,7 C 79 % 1021,1 hPa 0,0 l/m 0 min 0 min 0 W/m 22,5 km/h (4 Bft) 97,83 %
27.05.2022 00:28 15,9 C 15,0 C 11,7 C 79 % 1021,1 hPa 0,0 l/m 0 min 0 min 0 W/m 19,3 km/h (3 Bft) 95,74 %
27.05.2022 00:30 15,9 C 15,0 C 11,7 C 80 % 1021,1 hPa 0,0 l/m 0 min 0 min 0 W/m 16,1 km/h (3 Bft) 97,87 %
27.05.2022 00:32 15,9 C 15,0 C 11,7 C 80 % 1021,1 hPa 0,0 l/m 0 min 0 min 0 W/m 12,9 km/h (3 Bft) 97,87 %
27.05.2022 00:34 15,9 C 15,0 C 11,7 C 80 % 1021,0 hPa 0,0 l/m 0 min 0 min 0 W/m 16,1 km/h (3 Bft) 97,87 %
27.05.2022 00:36 15,9 C 15,0 C 11,7 C 80 % 1021,1 hPa 0,0 l/m 0 min 0 min 0 W/m 22,5 km/h (4 Bft) 97,96 %
27.05.2022 00:38 15,9 C 15,0 C 11,7 C 80 % 1021,1 hPa 0,0 l/m 0 min 0 min 0 W/m 19,3 km/h (3 Bft) 97,87 %
27.05.2022 00:40 15,9 C 15,0 C 11,7 C 80 % 1021,1 hPa 0,0 l/m 0 min 0 min 0 W/m 19,3 km/h (3 Bft) 97,87 %
27.05.2022 00:42 15,9 C 15,0 C 11,7 C 80 % 1021,1 hPa 0,0 l/m 0 min 0 min 0 W/m 12,9 km/h (3 Bft) 95,74 %
27.05.2022 00:44 15,9 C 15,0 C 11,7 C 80 % 1021,0 hPa 0,0 l/m 0 min 0 min 0 W/m 16,1 km/h (3 Bft) 97,87 %
27.05.2022 00:46 15,9 C 15,0 C 11,7 C 80 % 1021,0 hPa 0,0 l/m 0 min 0 min 0 W/m 12,9 km/h (3 Bft) 100,00 %
27.05.2022 00:48 15,8 C 15,0 C 11,7 C 80 % 1020,9 hPa 0,0 l/m 0 min 0 min 0 W/m 22,5 km/h (4 Bft) 100,00 %
27.05.2022 00:50 15,8 C 15,0 C 11,7 C 80 % 1021,0 hPa 0,0 l/m 0 min 0 min 0 W/m 19,3 km/h (3 Bft) 100,00 %
27.05.2022 00:52 15,8 C 15,0 C 11,7 C 80 % 1020,9 hPa 0,0 l/m 0 min 0 min 0 W/m 25,7 km/h (4 Bft) 100,00 %
27.05.2022 00:54 15,8 C 15,0 C 11,7 C 81 % 1020,8 hPa 0,0 l/m 0 min 0 min 0 W/m 19,3 km/h (3 Bft) 100,00 %
27.05.2022 00:56 15,8 C 15,0 C 11,7 C 81 % 1020,9 hPa 0,0 l/m 0 min 0 min 0 W/m 19,3 km/h (3 Bft) 100,00 %
27.05.2022 00:58 15,8 C 15,0 C 11,7 C 81 % 1020,9 hPa 0,0 l/m 0 min 0 min 0 W/m 16,1 km/h (3 Bft) 100,00 %
27.05.2022 01:00 15,8 C 15,0 C 11,7 C 81 % 1020,9 hPa 0,0 l/m 0 min 0 min 0 W/m 12,9 km/h (3 Bft) 100,00 %
27.05.2022 01:02 15,8 C 15,0 C 11,7 C 81 % 1020,9 hPa 0,0 l/m 0 min 0 min 0 W/m 22,5 km/h (4 Bft) 97,87 %
27.05.2022 01:04 15,7 C 15,0 C 11,7 C 81 % 1020,9 hPa 0,0 l/m 0 min 0 min 0 W/m 16,1 km/h (3 Bft) 100,00 %
27.05.2022 01:06 15,7 C 15,0 C 11,7 C 81 % 1020,9 hPa 0,0 l/m 0 min 0 min 0 W/m 22,5 km/h (4 Bft) 100,00 %
27.05.2022 01:08 15,7 C 15,0 C 11,7 C 81 % 1020,9 hPa 0,0 l/m 0 min 0 min 0 W/m 22,5 km/h (4 Bft) 100,00 %
27.05.2022 01:10 15,7 C 15,0 C 11,7 C 81 % 1020,9 hPa 0,0 l/m 0 min 0 min 0 W/m 19,3 km/h (3 Bft) 97,87 %
27.05.2022 01:12 15,7 C 15,0 C 11,7 C 81 % 1020,9 hPa 0,0 l/m 0 min 0 min 0 W/m 32,2 km/h (5 Bft) 100,00 %
27.05.2022 01:14 15,7 C 15,0 C 11,7 C 81 % 1020,9 hPa 0,0 l/m 0 min 0 min 0 W/m 22,5 km/h (4 Bft) 97,87 %
27.05.2022 01:16 15,7 C 15,0 C 11,7 C 81 % 1021,0 hPa 0,0 l/m 0 min 0 min 0 W/m 16,1 km/h (3 Bft) 97,87 %
27.05.2022 01:18 15,7 C 15,0 C 11,7 C 80 % 1020,9 hPa 0,0 l/m 0 min 0 min 0 W/m 16,1 km/h (3 Bft) 97,87 %
27.05.2022 01:20 15,6 C 15,0 C 11,7 C 81 % 1020,9 hPa 0,0 l/m 0 min 0 min 0 W/m 12,9 km/h (3 Bft) 95,74 %
27.05.2022 01:22 15,6 C 15,0 C 11,7 C 81 % 1021,0 hPa 0,0 l/m 0 min 0 min 0 W/m 19,3 km/h (3 Bft) 95,74 %
27.05.2022 01:24 15,6 C 15,0 C 11,7 C 81 % 1020,9 hPa 0,0 l/m 0 min 0 min 0 W/m 12,9 km/h (3 Bft) 93,48 %
27.05.2022 01:26 15,6 C 15,0 C 11,7 C 81 % 1020,9 hPa 0,0 l/m 0 min 0 min 0 W/m 16,1 km/h (3 Bft) 95,74 %
27.05.2022 01:28 15,6 C 15,0 C 11,7 C 81 % 1020,8 hPa 0,0 l/m 0 min 0 min 0 W/m 12,9 km/h (3 Bft) 97,87 %
27.05.2022 01:30 15,6 C 15,0 C 11,7 C 81 % 1020,9 hPa 0,0 l/m 0 min 0 min 0 W/m 16,1 km/h (3 Bft) 97,87 %
27.05.2022 01:32 15,6 C 15,0 C 11,7 C 81 % 1020,8 hPa 0,0 l/m 0 min 0 min 0 W/m 19,3 km/h (3 Bft) 97,87 %
27.05.2022 01:34 15,6 C 15,0 C 11,7 C 81 % 1020,8 hPa 0,0 l/m 0 min 0 min 0 W/m 12,9 km/h (3 Bft) 97,87 %
27.05.2022 01:36 15,6 C 15,0 C 11,7 C 81 % 1020,9 hPa 0,0 l/m 0 min 0 min 0 W/m 19,3 km/h (3 Bft) 97,83 %
27.05.2022 01:38 15,6 C 15,0 C 11,7 C 81 % 1020,9 hPa 0,0 l/m 0 min 0 min 0 W/m 19,3 km/h (3 Bft) 97,87 %
27.05.2022 01:40 15,6 C 15,0 C 11,7 C 81 % 1020,9 hPa 0,0 l/m 0 min 0 min 0 W/m 16,1 km/h (3 Bft) 97,87 %
27.05.2022 01:42 15,6 C 15,0 C 11,7 C 81 % 1021,1 hPa 0,0 l/m 0 min 0 min 0 W/m 12,9 km/h (3 Bft) 95,74 %
27.05.2022 01:44 15,6 C 15,0 C 11,7 C 81 % 1020,9 hPa 0,0 l/m 0 min 0 min 0 W/m 19,3 km/h (3 Bft) 95,74 %
27.05.2022 01:46 15,5 C 14,4 C 11,7 C 81 % 1020,8 hPa 0,0 l/m 0 min 0 min 0 W/m 19,3 km/h (3 Bft) 97,87 %
27.05.2022 01:48 15,5 C 14,4 C 11,7 C 81 % 1020,9 hPa 0,0 l/m 0 min 0 min 0 W/m 22,5 km/h (4 Bft) 97,83 %
27.05.2022 01:50 15,5 C 15,0 C 11,7 C 82 % 1020,8 hPa 0,0 l/m 0 min 0 min 0 W/m 12,9 km/h (3 Bft) 97,87 %
27.05.2022 01:52 15,5 C 15,0 C 11,7 C 81 % 1020,8 hPa 0,0 l/m 0 min 0 min 0 W/m 16,1 km/h (3 Bft) 97,87 %
27.05.2022 01:54 15,5 C 15,0 C 11,7 C 82 % 1020,8 hPa 0,0 l/m 0 min 0 min 0 W/m 19,3 km/h (3 Bft) 97,87 %
27.05.2022 01:56 15,5 C 14,4 C 11,7 C 82 % 1020,7 hPa 0,0 l/m 0 min 0 min 0 W/m 12,9 km/h (3 Bft) 97,87 %
27.05.2022 01:58 15,5 C 14,4 C 11,7 C 82 % 1020,7 hPa 0,0 l/m 0 min 0 min 0 W/m 12,9 km/h (3 Bft) 97,87 %
27.05.2022 02:00 15,5 C 14,4 C 11,1 C 82 % 1020,7 hPa 0,0 l/m 0 min 0 min 0 W/m 16,1 km/h (3 Bft) 97,83 %
27.05.2022 02:02 15,4 C 14,4 C 11,1 C 82 % 1020,6 hPa 0,0 l/m 0 min 0 min 0 W/m 16,1 km/h (3 Bft) 93,62 %
27.05.2022 02:04 15,4 C 14,4 C 11,1 C 82 % 1020,6 hPa 0,0 l/m 0 min 0 min 0 W/m 19,3 km/h (3 Bft) 100,00 %
27.05.2022 02:06 15,4 C 14,4 C 11,1 C 82 % 1020,6 hPa 0,0 l/m 0 min 0 min 0 W/m 12,9 km/h (3 Bft) 97,87 %
27.05.2022 02:08 15,4 C 14,4 C 11,1 C 82 % 1020,5 hPa 0,0 l/m 0 min 0 min 0 W/m 12,9 km/h (3 Bft) 95,74 %
27.05.2022 02:10 15,4 C 14,4 C 11,1 C 82 % 1020,5 hPa 0,0 l/m 0 min 0 min 0 W/m 22,5 km/h (4 Bft) 95,74 %
27.05.2022 02:12 15,4 C 14,4 C 11,7 C 82 % 1020,5 hPa 0,0 l/m 0 min 0 min 0 W/m 16,1 km/h (3 Bft) 95,65 %
27.05.2022 02:14 15,4 C 14,4 C 11,1 C 82 % 1020,5 hPa 0,0 l/m 0 min 0 min 0 W/m 16,1 km/h (3 Bft) 97,87 %
27.05.2022 02:16 15,4 C 14,4 C 11,1 C 82 % 1020,5 hPa 0,0 l/m 0 min 0 min 0 W/m 22,5 km/h (4 Bft) 97,87 %
27.05.2022 02:18 15,4 C 14,4 C 11,1 C 82 % 1020,5 hPa 0,0 l/m 0 min 0 min 0 W/m 12,9 km/h (3 Bft) 97,87 %
27.05.2022 02:20 15,4 C 14,4 C 11,1 C 82 % 1020,5 hPa 0,0 l/m 0 min 0 min 0 W/m 12,9 km/h (3 Bft) 93,62 %
27.05.2022 02:22 15,4 C 14,4 C 11,1 C 82 % 1020,4 hPa 0,0 l/m 0 min 0 min 0 W/m 22,5 km/h (4 Bft) 95,74 %
27.05.2022 02:24 15,4 C 14,4 C 11,1 C 82 % 1020,5 hPa 0,0 l/m 0 min 0 min 0 W/m 12,9 km/h (3 Bft) 95,65 %
27.05.2022 02:26 15,4 C 14,4 C 11,1 C 82 % 1020,4 hPa 0,0 l/m 0 min 0 min 0 W/m 16,1 km/h (3 Bft) 95,74 %
27.05.2022 02:28 15,3 C 14,4 C 11,1 C 82 % 1020,4 hPa 0,0 l/m 0 min 0 min 0 W/m 12,9 km/h (3 Bft) 93,62 %
27.05.2022 02:30 15,3 C 14,4 C 11,1 C 82 % 1020,5 hPa 0,0 l/m 0 min 0 min 0 W/m 22,5 km/h (4 Bft) 95,74 %
27.05.2022 02:32 15,3 C 14,4 C 11,1 C 82 % 1020,5 hPa 0,0 l/m 0 min 0 min 0 W/m 16,1 km/h (3 Bft) 93,62 %
27.05.2022 02:34 15,3 C 14,4 C 11,1 C 82 % 1020,5 hPa 0,0 l/m 0 min 0 min 0 W/m 19,3 km/h (3 Bft) 95,74 %
27.05.2022 02:36 15,3 C 14,4 C 11,1 C 82 % 1020,5 hPa 0,0 l/m 0 min 0 min 0 W/m 19,3 km/h (3 Bft) 97,83 %
27.05.2022 02:38 15,3 C 14,4 C 11,1 C 82 % 1020,4 hPa 0,0 l/m 0 min 0 min 0 W/m 16,1 km/h (3 Bft) 97,87 %
27.05.2022 02:40 15,3 C 14,4 C 11,1 C 82 % 1020,4 hPa 0,0 l/m 0 min 0 min 0 W/m 16,1 km/h (3 Bft) 97,87 %
27.05.2022 02:42 15,3 C 14,4 C 11,1 C 82 % 1020,5 hPa 0,0 l/m 0 min 0 min 0 W/m 22,5 km/h (4 Bft) 95,74 %
27.05.2022 02:44 15,3 C 14,4 C 11,1 C 82 % 1020,5 hPa 0,0 l/m 0 min 0 min 0 W/m 12,9 km/h (3 Bft) 97,87 %
27.05.2022 02:46 15,3 C 14,4 C 11,1 C 83 % 1020,3 hPa 0,0 l/m 0 min 0 min 0 W/m 22,5 km/h (4 Bft) 97,87 %
27.05.2022 02:48 15,3 C 14,4 C 11,1 C 82 % 1020,4 hPa 0,0 l/m 0 min 0 min 0 W/m 22,5 km/h (4 Bft) 97,83 %
27.05.2022 02:50 15,3 C 14,4 C 11,1 C 82 % 1020,5 hPa 0,0 l/m 0 min 0 min 0 W/m 12,9 km/h (3 Bft) 95,74 %
27.05.2022 02:52 15,3 C 14,4 C 11,1 C 83 % 1020,4 hPa 0,0 l/m 0 min 0 min 0 W/m 16,1 km/h (3 Bft) 95,74 %
27.05.2022 02:54 15,3 C 14,4 C 11,1 C 83 % 1020,4 hPa 0,0 l/m 0 min 0 min 0 W/m 16,1 km/h (3 Bft) 97,87 %
27.05.2022 02:56 15,3 C 14,4 C 11,1 C 83 % 1020,4 hPa 0,0 l/m 0 min 0 min 0 W/m 22,5 km/h (4 Bft) 97,87 %
27.05.2022 02:58 15,2 C 14,4 C 11,1 C 83 % 1020,3 hPa 0,0 l/m 0 min 0 min 0 W/m 16,1 km/h (3 Bft) 97,87 %
27.05.2022 03:00 15,2 C 14,4 C 11,1 C 83 % 1020,3 hPa 0,0 l/m 0 min 0 min 0 W/m 16,1 km/h (3 Bft) 97,83 %
27.05.2022 03:02 15,2 C 14,4 C 11,1 C 83 % 1020,6 hPa 0,0 l/m 0 min 0 min 0 W/m 29,0 km/h (5 Bft) 97,87 %
27.05.2022 03:04 15,1 C 14,4 C 11,1 C 83 % 1020,4 hPa 0,0 l/m 0 min 0 min 0 W/m 19,3 km/h (3 Bft) 97,87 %
27.05.2022 03:06 15,1 C 14,4 C 11,1 C 83 % 1020,3 hPa 0,0 l/m 0 min 0 min 0 W/m 9,7 km/h (2 Bft) 100,00 %
27.05.2022 03:08 15,1 C 14,4 C 11,1 C 83 % 1020,3 hPa 0,0 l/m 0 min 0 min 0 W/m 12,9 km/h (3 Bft) 97,87 %
27.05.2022 03:10 15,1 C 14,4 C 11,1 C 84 % 1020,4 hPa 0,0 l/m 0 min 0 min 0 W/m 19,3 km/h (3 Bft) 95,74 %
27.05.2022 03:12 15,0 C 14,4 C 11,1 C 84 % 1020,3 hPa 0,0 l/m 0 min 0 min 0 W/m 19,3 km/h (3 Bft) 100,00 %
27.05.2022 03:14 15,0 C 14,4 C 11,1 C 84 % 1020,4 hPa 0,0 l/m 0 min 0 min 0 W/m 19,3 km/h (3 Bft) 100,00 %
27.05.2022 03:16 14,9 C 14,4 C 11,1 C 84 % 1020,3 hPa 0,0 l/m 0 min 0 min 0 W/m 16,1 km/h (3 Bft) 97,87 %
27.05.2022 03:18 14,9 C 14,4 C 11,1 C 84 % 1020,3 hPa 0,0 l/m 0 min 0 min 0 W/m 12,9 km/h (3 Bft) 100,00 %
27.05.2022 03:20 14,9 C 14,4 C 11,1 C 84 % 1020,3 hPa 0,0 l/m 0 min 0 min 0 W/m 12,9 km/h (3 Bft) 97,87 %
27.05.2022 03:22 14,9 C 14,4 C 11,1 C 84 % 1020,3 hPa 0,0 l/m 0 min 0 min 0 W/m 12,9 km/h (3 Bft) 97,87 %
27.05.2022 03:24 14,9 C 13,9 C 11,1 C 84 % 1020,3 hPa 0,0 l/m 0 min 0 min 0 W/m 22,5 km/h (4 Bft) 100,00 %
27.05.2022 03:26 14,9 C 13,9 C 10,6 C 84 % 1020,2 hPa 0,0 l/m 0 min 0 min 0 W/m 16,1 km/h (3 Bft) 97,87 %
27.05.2022 03:28 14,9 C 13,9 C 10,6 C 84 % 1020,2 hPa 0,0 l/m 0 min 0 min 0 W/m 19,3 km/h (3 Bft) 100,00 %
27.05.2022 03:30 14,8 C 13,9 C 10,6 C 84 % 1020,4 hPa 0,0 l/m 0 min 0 min 0 W/m 16,1 km/h (3 Bft) 100,00 %
27.05.2022 03:32 14,8 C 14,4 C 11,1 C 84 % 1020,2 hPa 0,0 l/m 0 min 0 min 0 W/m 12,9 km/h (3 Bft) 100,00 %
27.05.2022 03:34 14,8 C 13,9 C 11,1 C 84 % 1020,2 hPa 0,0 l/m 0 min 0 min 0 W/m 12,9 km/h (3 Bft) 100,00 %
27.05.2022 03:36 14,8 C 13,9 C 11,1 C 84 % 1020,1 hPa 0,0 l/m 0 min 0 min 0 W/m 19,3 km/h (3 Bft) 100,00 %
27.05.2022 03:38 14,8 C 14,4 C 11,1 C 84 % 1020,1 hPa 0,0 l/m 0 min 0 min 0 W/m 16,1 km/h (3 Bft) 100,00 %
27.05.2022 03:40 14,8 C 13,9 C 11,1 C 84 % 1020,1 hPa 0,0 l/m 0 min 0 min 0 W/m 16,1 km/h (3 Bft) 100,00 %
27.05.2022 03:42 14,8 C 14,4 C 11,1 C 84 % 1020,1 hPa 0,0 l/m 0 min 0 min 0 W/m 12,9 km/h (3 Bft) 97,87 %
27.05.2022 03:44 14,8 C 14,4 C 11,1 C 84 % 1020,1 hPa 0,0 l/m 0 min 0 min 0 W/m 16,1 km/h (3 Bft) 100,00 %
27.05.2022 03:46 14,8 C 13,9 C 11,1 C 84 % 1020,1 hPa 0,0 l/m 0 min 0 min 0 W/m 22,5 km/h (4 Bft) 100,00 %
27.05.2022 03:48 14,8 C 14,4 C 10,6 C 84 % 1020,1 hPa 0,0 l/m 0 min 0 min 0 W/m 9,7 km/h (2 Bft) 97,87 %
27.05.2022 03:50 14,8 C 13,9 C 10,6 C 84 % 1020,1 hPa 0,0 l/m 0 min 0 min 0 W/m 19,3 km/h (3 Bft) 100,00 %
27.05.2022 03:52 14,8 C 13,9 C 10,6 C 84 % 1020,2 hPa 0,0 l/m 0 min 0 min 0 W/m 16,1 km/h (3 Bft) 100,00 %
27.05.2022 03:54 14,8 C 13,9 C 10,6 C 84 % 1020,0 hPa 0,0 l/m 0 min 0 min 0 W/m 16,1 km/h (3 Bft) 100,00 %
27.05.2022 03:56 14,8 C 13,9 C 10,6 C 84 % 1020,1 hPa 0,0 l/m 0 min 0 min 0 W/m 16,1 km/h (3 Bft) 97,87 %
27.05.2022 03:58 14,8 C 14,4 C 11,1 C 84 % 1020,1 hPa 0,0 l/m 0 min 0 min 0 W/m 19,3 km/h (3 Bft) 100,00 %
27.05.2022 04:00 14,8 C 14,4 C 11,1 C 84 % 1020,1 hPa 0,0 l/m 0 min 0 min 0 W/m 12,9 km/h (3 Bft) 97,87 %
27.05.2022 04:02 14,8 C 13,9 C 11,1 C 84 % 1020,1 hPa 0,0 l/m 0 min 0 min 0 W/m 9,7 km/h (2 Bft) 100,00 %
27.05.2022 04:04 14,8 C 14,4 C 11,1 C 84 % 1020,0 hPa 0,0 l/m 0 min 0 min 0 W/m 25,7 km/h (4 Bft) 100,00 %
27.05.2022 04:06 14,8 C 14,4 C 11,1 C 84 % 1020,0 hPa 0,0 l/m 0 min 0 min 0 W/m 16,1 km/h (3 Bft) 97,87 %
27.05.2022 04:08 14,8 C 14,4 C 11,1 C 84 % 1020,0 hPa 0,0 l/m 0 min 0 min 0 W/m 9,7 km/h (2 Bft) 97,87 %
27.05.2022 04:10 14,8 C 13,9 C 11,1 C 84 % 1020,0 hPa 0,0 l/m 0 min 0 min 0 W/m 9,7 km/h (2 Bft) 95,65 %
27.05.2022 04:12 14,8 C 13,9 C 11,1 C 84 % 1020,1 hPa 0,0 l/m 0 min 0 min 0 W/m 19,3 km/h (3 Bft) 95,74 %
27.05.2022 04:14 14,8 C 13,9 C 10,6 C 84 % 1020,0 hPa 0,0 l/m 0 min 0 min 0 W/m 16,1 km/h (3 Bft) 93,62 %
27.05.2022 04:16 14,8 C 13,9 C 10,6 C 84 % 1020,0 hPa 0,0 l/m 0 min 0 min 0 W/m 19,3 km/h (3 Bft) 95,74 %
27.05.2022 04:18 14,8 C 13,9 C 10,6 C 85 % 1020,0 hPa 0,0 l/m 0 min 0 min 0 W/m 12,9 km/h (3 Bft) 95,74 %
27.05.2022 04:20 14,7 C 13,9 C 10,6 C 85 % 1020,0 hPa 0,0 l/m 0 min 0 min 0 W/m 16,1 km/h (3 Bft) 91,49 %
27.05.2022 04:22 14,7 C 13,9 C 10,6 C 85 % 1019,9 hPa 0,0 l/m 0 min 0 min 0 W/m 12,9 km/h (3 Bft) 95,65 %
27.05.2022 04:24 14,7 C 13,9 C 10,6 C 85 % 1019,9 hPa 0,0 l/m 0 min 0 min 0 W/m 16,1 km/h (3 Bft) 95,74 %
27.05.2022 04:26 14,7 C 13,9 C 10,6 C 85 % 1019,9 hPa 0,0 l/m 0 min 0 min 0 W/m 12,9 km/h (3 Bft) 93,62 %
27.05.2022 04:28 14,7 C 13,9 C 10,6 C 85 % 1019,9 hPa 0,0 l/m 0 min 0 min 0 W/m 16,1 km/h (3 Bft) 95,74 %
27.05.2022 04:30 14,7 C 13,9 C 10,6 C 85 % 1019,9 hPa 0,0 l/m 0 min 0 min 0 W/m 16,1 km/h (3 Bft) 95,74 %
27.05.2022 04:32 14,6 C 13,9 C 10,6 C 86 % 1020,0 hPa 0,0 l/m 0 min 0 min 0 W/m 25,7 km/h (4 Bft) 95,74 %
27.05.2022 04:34 14,6 C 13,9 C 10,6 C 86 % 1019,9 hPa 0,0 l/m 0 min 0 min 0 W/m 16,1 km/h (3 Bft) 97,83 %
27.05.2022 04:36 14,6 C 13,9 C 10,6 C 86 % 1019,9 hPa 0,0 l/m 0 min 0 min 0 W/m 19,3 km/h (3 Bft) 97,87 %
27.05.2022 04:38 14,6 C 13,9 C 10,6 C 86 % 1019,9 hPa 0,0 l/m 0 min 0 min 0 W/m 19,3 km/h (3 Bft) 93,62 %
27.05.2022 04:40 14,6 C 13,9 C 10,6 C 86 % 1020,1 hPa 0,0 l/m 0 min 0 min 0 W/m 22,5 km/h (4 Bft) 97,87 %
27.05.2022 04:42 14,6 C 13,9 C 10,6 C 86 % 1020,0 hPa 0,0 l/m 0 min 0 min 0 W/m 16,1 km/h (3 Bft) 95,74 %
27.05.2022 04:44 14,5 C 13,9 C 10,0 C 86 % 1019,9 hPa 0,0 l/m 0 min 0 min 0 W/m 16,1 km/h (3 Bft) 95,74 %
27.05.2022 04:46 14,4 C 13,9 C 10,0 C 87 % 1020,0 hPa 0,0 l/m 0 min 0 min 0 W/m 16,1 km/h (3 Bft) 97,83 %
27.05.2022 04:48 14,4 C 13,3 C 10,0 C 87 % 1020,0 hPa 0,0 l/m 0 min 0 min 0 W/m 25,7 km/h (4 Bft) 95,74 %
27.05.2022 04:50 14,3 C 13,3 C 9,4 C 88 % 1020,0 hPa 0,0 l/m 0 min 2 min 0 W/m 32,2 km/h (5 Bft) 97,87 %
27.05.2022 04:52 14,3 C 13,3 C 9,4 C 88 % 1020,0 hPa 0,0 l/m 0 min 0 min 0 W/m 12,9 km/h (3 Bft) 97,87 %
27.05.2022 04:54 14,3 C 13,3 C 9,4 C 89 % 1020,0 hPa 0,0 l/m 0 min 0 min 0 W/m 19,3 km/h (3 Bft) 95,74 %
27.05.2022 04:56 14,3 C 13,3 C 9,4 C 89 % 1019,9 hPa 0,0 l/m 0 min 0 min 0 W/m 19,3 km/h (3 Bft) 95,74 %
27.05.2022 04:58 14,3 C 13,3 C 9,4 C 89 % 1019,9 hPa 0,0 l/m 0 min 2 min 0 W/m 16,1 km/h (3 Bft) 95,65 %
27.05.2022 05:00 14,2 C 12,8 C 9,4 C 90 % 1019,9 hPa 0,0 l/m 0 min 2 min 0 W/m 12,9 km/h (3 Bft) 100,00 %
27.05.2022 05:02 14,2 C 12,8 C 9,4 C 90 % 1019,9 hPa 0,0 l/m 0 min 0 min 0 W/m 12,9 km/h (3 Bft) 97,87 %
27.05.2022 05:04 14,1 C 12,8 C 9,4 C 90 % 1019,9 hPa 0,0 l/m 0 min 2 min 0 W/m 12,9 km/h (3 Bft) 100,00 %
27.05.2022 05:06 14,1 C 12,8 C 9,4 C 91 % 1020,0 hPa 0,0 l/m 0 min 0 min 0 W/m 12,9 km/h (3 Bft) 97,87 %
27.05.2022 05:08 14,0 C 12,8 C 9,4 C 91 % 1020,0 hPa 0,0 l/m 0 min 0 min 0 W/m 12,9 km/h (3 Bft) 100,00 %
27.05.2022 05:10 13,9 C 12,8 C 9,4 C 91 % 1019,9 hPa 0,0 l/m 0 min 0 min 0 W/m 12,9 km/h (3 Bft) 97,83 %
27.05.2022 05:12 13,9 C 12,8 C 9,4 C 91 % 1020,0 hPa 0,0 l/m 0 min 0 min 0 W/m 12,9 km/h (3 Bft) 97,87 %
27.05.2022 05:14 13,9 C 12,8 C 8,9 C 92 % 1019,9 hPa 0,0 l/m 0 min 0 min 0 W/m 6,4 km/h (2 Bft) 100,00 %
27.05.2022 05:16 13,8 C 12,8 C 8,9 C 92 % 1019,8 hPa 0,0 l/m 0 min 2 min 0 W/m 19,3 km/h (3 Bft) 97,87 %
27.05.2022 05:18 13,8 C 12,8 C 9,4 C 92 % 1019,8 hPa 0,0 l/m 0 min 0 min 0 W/m 12,9 km/h (3 Bft) 97,87 %
27.05.2022 05:20 13,8 C 12,8 C 9,4 C 92 % 1019,8 hPa 0,0 l/m 0 min 0 min 0 W/m 12,9 km/h (3 Bft) 97,87 %
27.05.2022 05:22 13,8 C 12,8 C 8,9 C 92 % 1019,8 hPa 0,0 l/m 0 min 0 min 0 W/m 12,9 km/h (3 Bft) 97,83 %
27.05.2022 05:24 13,8 C 12,8 C 8,9 C 93 % 1019,8 hPa 0,2 l/m 0 min 0 min 0 W/m 9,7 km/h (2 Bft) 97,87 %
27.05.2022 05:26 13,7 C 12,8 C 8,9 C 93 % 1019,9 hPa 0,0 l/m 0 min 0 min 0 W/m 6,4 km/h (2 Bft) 95,74 %
27.05.2022 05:28 13,7 C 12,8 C 8,9 C 93 % 1019,8 hPa 0,0 l/m 0 min 0 min 0 W/m 16,1 km/h (3 Bft) 95,74 %
27.05.2022 05:30 13,7 C 12,8 C 8,9 C 93 % 1019,9 hPa 0,0 l/m 0 min 0 min 0 W/m 16,1 km/h (3 Bft) 97,87 %
27.05.2022 05:32 13,6 C 12,8 C 8,9 C 93 % 1019,9 hPa 0,0 l/m 0 min 0 min 0 W/m 9,7 km/h (2 Bft) 97,87 %
27.05.2022 05:34 13,6 C 12,8 C 8,9 C 94 % 1020,1 hPa 0,0 l/m 0 min 0 min 0 W/m 16,1 km/h (3 Bft) 97,83 %
27.05.2022 05:36 13,6 C 12,2 C 8,9 C 94 % 1020,0 hPa 0,0 l/m 0 min 0 min 0 W/m 12,9 km/h (3 Bft) 95,74 %
27.05.2022 05:38 13,6 C 12,2 C 8,9 C 94 % 1020,0 hPa 0,0 l/m 0 min 0 min 0 W/m 12,9 km/h (3 Bft) 97,87 %
27.05.2022 05:40 13,6 C 12,8 C 8,9 C 94 % 1019,9 hPa 0,0 l/m 0 min 0 min 0 W/m 6,4 km/h (2 Bft) 97,87 %
27.05.2022 05:42 13,5 C 12,8 C 8,9 C 94 % 1019,9 hPa 0,0 l/m 0 min 0 min 0 W/m 16,1 km/h (3 Bft) 95,74 %
27.05.2022 05:44 13,4 C 12,8 C 8,9 C 94 % 1019,9 hPa 0,2 l/m 0 min 0 min 0 W/m 16,1 km/h (3 Bft) 97,87 %
27.05.2022 05:46 13,4 C 12,2 C 8,9 C 94 % 1019,9 hPa 0,0 l/m 0 min 0 min 0 W/m 6,4 km/h (2 Bft) 95,65 %
27.05.2022 05:48 13,4 C 12,2 C 8,9 C 95 % 1019,9 hPa 0,0 l/m 0 min 0 min 0 W/m 9,7 km/h (2 Bft) 97,87 %
27.05.2022 05:50 13,4 C 12,2 C 8,9 C 95 % 1019,9 hPa 0,0 l/m 0 min 2 min 0 W/m 12,9 km/h (3 Bft) 97,87 %
27.05.2022 05:52 13,4 C 12,2 C 8,9 C 95 % 1019,9 hPa 0,0 l/m 0 min 0 min 3 W/m 12,9 km/h (3 Bft) 95,74 %
27.05.2022 05:54 13,4 C 12,2 C 8,9 C 95 % 1019,9 hPa 0,2 l/m 0 min 0 min 5 W/m 12,9 km/h (3 Bft) 95,74 %
27.05.2022 05:56 13,4 C 12,2 C 8,9 C 95 % 1019,9 hPa 0,0 l/m 0 min 0 min 3 W/m 16,1 km/h (3 Bft) 95,74 %
27.05.2022 05:58 13,3 C 12,2 C 8,9 C 95 % 1019,8 hPa 0,0 l/m 0 min 0 min 5 W/m 6,4 km/h (2 Bft) 93,48 %
27.05.2022 06:00 13,3 C 12,2 C 8,9 C 95 % 1019,9 hPa 0,0 l/m 0 min 0 min 6 W/m 9,7 km/h (2 Bft) 95,74 %
27.05.2022 06:02 13,3 C 12,2 C 8,9 C 95 % 1019,9 hPa 0,0 l/m 0 min 0 min 7 W/m 12,9 km/h (3 Bft) 95,74 %
27.05.2022 06:04 13,3 C 12,2 C 8,9 C 95 % 1019,9 hPa 0,0 l/m 0 min 0 min 6 W/m 12,9 km/h (3 Bft) 95,74 %
27.05.2022 06:07 13,3 C 12,2 C 8,9 C 95 % 1020,0 hPa 0,0 l/m 0 min 0 min 6 W/m 12,9 km/h (3 Bft) 95,83 %
27.05.2022 06:08 13,3 C 12,2 C 8,9 C 95 % 1020,0 hPa 0,0 l/m 0 min 0 min 5 W/m 12,9 km/h (3 Bft) 87,50 %
27.05.2022 06:10 13,3 C 12,2 C 8,9 C 95 % 1020,0 hPa 0,0 l/m 0 min 0 min 6 W/m 9,7 km/h (2 Bft) 95,65 %
27.05.2022 06:12 13,3 C 12,2 C 8,9 C 96 % 1020,1 hPa 0,2 l/m 0 min 0 min 5 W/m 6,4 km/h (2 Bft) 95,74 %
27.05.2022 06:14 13,3 C 12,2 C 8,9 C 96 % 1020,1 hPa 0,0 l/m 0 min 2 min 6 W/m 6,4 km/h (2 Bft) 97,87 %
27.05.2022 06:16 13,3 C 12,2 C 8,9 C 96 % 1020,1 hPa 0,0 l/m 0 min 2 min 6 W/m 3,2 km/h (1 Bft) 97,87 %
27.05.2022 06:18 13,3 C 12,2 C 8,9 C 96 % 1020,1 hPa 0,2 l/m 0 min 2 min 5 W/m 12,9 km/h (3 Bft) 97,87 %
27.05.2022 06:20 13,3 C 12,2 C 8,9 C 96 % 1020,3 hPa 0,2 l/m 0 min 2 min 5 W/m 9,7 km/h (2 Bft) 97,87 %
27.05.2022 06:22 13,3 C 12,2 C 8,9 C 96 % 1020,2 hPa 0,0 l/m 0 min 2 min 10 W/m 12,9 km/h (3 Bft) 100,00 %
27.05.2022 06:24 13,3 C 12,2 C 8,9 C 96 % 1020,2 hPa 0,0 l/m 0 min 2 min 12 W/m 6,4 km/h (2 Bft) 100,00 %
27.05.2022 06:26 13,3 C 12,2 C 8,9 C 96 % 1020,3 hPa 0,2 l/m 0 min 2 min 10 W/m 6,4 km/h (2 Bft) 100,00 %
27.05.2022 06:28 13,3 C 12,2 C 8,9 C 96 % 1020,3 hPa 0,0 l/m 0 min 2 min 9 W/m 9,7 km/h (2 Bft) 100,00 %
27.05.2022 06:30 13,3 C 12,2 C 8,9 C 96 % 1020,2 hPa 0,0 l/m 0 min 0 min 9 W/m 6,4 km/h (2 Bft) 100,00 %
27.05.2022 06:32 13,3 C 12,2 C 8,9 C 96 % 1020,2 hPa 0,2 l/m 0 min 0 min 10 W/m 6,4 km/h (2 Bft) 95,65 %
27.05.2022 06:34 13,3 C 12,2 C 8,9 C 96 % 1020,2 hPa 0,0 l/m 0 min 0 min 11 W/m 9,7 km/h (2 Bft) 100,00 %
27.05.2022 06:36 13,3 C 12,2 C 8,9 C 96 % 1020,2 hPa 0,0 l/m 0 min 2 min 13 W/m 3,2 km/h (1 Bft) 97,87 %
27.05.2022 06:38 13,3 C 12,2 C 8,9 C 96 % 1020,2 hPa 0,0 l/m 0 min 0 min 17 W/m 9,7 km/h (2 Bft) 100,00 %
27.05.2022 06:40 13,3 C 12,2 C 8,9 C 96 % 1020,2 hPa 0,0 l/m 0 min 2 min 19 W/m 9,7 km/h (2 Bft) 100,00 %
27.05.2022 06:42 13,3 C 12,2 C 8,9 C 96 % 1020,2 hPa 0,0 l/m 0 min 0 min 22 W/m 6,4 km/h (2 Bft) 100,00 %
27.05.2022 06:44 13,3 C 12,2 C 8,9 C 96 % 1020,2 hPa 0,0 l/m 0 min 0 min 23 W/m 9,7 km/h (2 Bft) 100,00 %
27.05.2022 06:46 13,3 C 12,2 C 8,9 C 96 % 1020,2 hPa 0,0 l/m 0 min 0 min 20 W/m 6,4 km/h (2 Bft) 100,00 %
27.05.2022 06:48 13,3 C 12,2 C 8,9 C 96 % 1020,2 hPa 0,0 l/m 0 min 0 min 18 W/m 12,9 km/h (3 Bft) 100,00 %
27.05.2022 06:50 13,2 C 12,2 C 8,9 C 96 % 1020,2 hPa 0,0 l/m 0 min 0 min 18 W/m 6,4 km/h (2 Bft) 100,00 %
27.05.2022 06:52 13,2 C 12,2 C 8,9 C 96 % 1020,2 hPa 0,0 l/m 0 min 0 min 19 W/m 12,9 km/h (3 Bft) 100,00 %
27.05.2022 06:54 13,2 C 12,2 C 8,9 C 96 % 1020,1 hPa 0,0 l/m 0 min 0 min 20 W/m 12,9 km/h (3 Bft) 100,00 %
27.05.2022 06:56 13,2 C 12,2 C 8,9 C 96 % 1020,2 hPa 0,2 l/m 0 min 2 min 26 W/m 3,2 km/h (1 Bft) 100,00 %
27.05.2022 06:58 13,2 C 12,2 C 8,9 C 96 % 1020,2 hPa 0,0 l/m 0 min 0 min 28 W/m 6,4 km/h (2 Bft) 100,00 %
27.05.2022 07:00 13,1 C 12,2 C 8,9 C 96 % 1020,3 hPa 0,0 l/m 0 min 0 min 24 W/m 9,7 km/h (2 Bft) 97,87 %
27.05.2022 07:02 13,1 C 12,2 C 8,9 C 96 % 1020,3 hPa 0,0 l/m 0 min 0 min 25 W/m 12,9 km/h (3 Bft) 100,00 %
27.05.2022 07:04 13,1 C 12,2 C 8,9 C 96 % 1020,3 hPa 0,0 l/m 0 min 0 min 28 W/m 9,7 km/h (2 Bft) 97,87 %
27.05.2022 07:06 12,9 C 11,7 C 8,3 C 96 % 1020,3 hPa 0,0 l/m 0 min 0 min 32 W/m 16,1 km/h (3 Bft) 100,00 %
27.05.2022 07:08 12,9 C 12,2 C 8,3 C 96 % 1020,3 hPa 0,0 l/m 0 min 0 min 35 W/m 12,9 km/h (3 Bft) 100,00 %
27.05.2022 07:10 12,9 C 12,2 C 8,9 C 96 % 1020,3 hPa 0,0 l/m 0 min 0 min 33 W/m 9,7 km/h (2 Bft) 97,87 %
27.05.2022 07:12 12,9 C 12,2 C 8,9 C 96 % 1020,3 hPa 0,0 l/m 0 min 0 min 35 W/m 12,9 km/h (3 Bft) 95,74 %
27.05.2022 07:14 12,8 C 12,2 C 8,3 C 96 % 1020,4 hPa 0,0 l/m 0 min 0 min 37 W/m 12,9 km/h (3 Bft) 97,87 %
27.05.2022 07:16 12,8 C 12,2 C 8,9 C 96 % 1020,4 hPa 0,0 l/m 0 min 0 min 52 W/m 9,7 km/h (2 Bft) 97,87 %
27.05.2022 07:18 12,8 C 12,2 C 8,9 C 96 % 1020,3 hPa 0,0 l/m 0 min 0 min 70 W/m 6,4 km/h (2 Bft) 76,60 %
27.05.2022 07:20 12,8 C 12,2 C 8,9 C 96 % 1020,4 hPa 0,2 l/m 0 min 0 min 50 W/m 12,9 km/h (3 Bft) 73,81 %
27.05.2022 07:22 12,8 C 12,2 C 8,9 C 96 % 1020,4 hPa 0,0 l/m 0 min 0 min 30 W/m 9,7 km/h (2 Bft) 97,87 %
27.05.2022 07:24 12,8 C 12,2 C 8,9 C 97 % 1020,4 hPa 0,0 l/m 0 min 0 min 33 W/m 9,7 km/h (2 Bft) 97,87 %
27.05.2022 07:26 12,8 C 12,2 C 8,9 C 97 % 1020,4 hPa 0,0 l/m 0 min 2 min 45 W/m 9,7 km/h (2 Bft) 97,87 %
27.05.2022 07:28 12,8 C 12,2 C 8,9 C 97 % 1020,5 hPa 0,0 l/m 0 min 2 min 57 W/m 9,7 km/h (2 Bft) 97,87 %
27.05.2022 07:30 12,9 C 12,2 C 8,9 C 97 % 1020,5 hPa 0,0 l/m 0 min 2 min 45 W/m 16,1 km/h (3 Bft) 95,74 %
27.05.2022 07:32 12,8 C 12,2 C 8,9 C 97 % 1020,5 hPa 0,0 l/m 0 min 0 min 33 W/m 6,4 km/h (2 Bft) 97,83 %
27.05.2022 07:34 12,8 C 12,2 C 8,9 C 97 % 1020,4 hPa 0,0 l/m 0 min 0 min 41 W/m 6,4 km/h (2 Bft) 97,87 %
27.05.2022 07:36 12,8 C 12,2 C 8,9 C 97 % 1020,4 hPa 0,0 l/m 0 min 0 min 41 W/m 3,2 km/h (1 Bft) 97,87 %
27.05.2022 07:38 12,9 C 12,2 C 8,9 C 97 % 1020,4 hPa 0,0 l/m 0 min 0 min 51 W/m 6,4 km/h (2 Bft) 97,87 %
27.05.2022 07:40 12,9 C 12,2 C 8,9 C 97 % 1020,5 hPa 0,0 l/m 0 min 0 min 52 W/m 6,4 km/h (2 Bft) 97,87 %
27.05.2022 07:42 12,9 C 12,2 C 8,9 C 97 % 1020,4 hPa 0,0 l/m 0 min 2 min 57 W/m 3,2 km/h (1 Bft) 95,74 %
27.05.2022 07:44 12,9 C 12,2 C 8,9 C 97 % 1020,4 hPa 0,2 l/m 0 min 0 min 53 W/m 6,4 km/h (2 Bft) 91,30 %
27.05.2022 07:46 12,9 C 12,2 C 8,9 C 97 % 1020,4 hPa 0,0 l/m 0 min 0 min 52 W/m 12,9 km/h (3 Bft) 95,74 %
27.05.2022 07:48 12,9 C 12,2 C 8,9 C 97 % 1020,4 hPa 0,0 l/m 0 min 0 min 52 W/m 9,7 km/h (2 Bft) 93,62 %
27.05.2022 07:50 12,8 C 12,2 C 8,9 C 97 % 1020,4 hPa 0,0 l/m 0 min 2 min 69 W/m 6,4 km/h (2 Bft) 95,74 %
27.05.2022 07:52 12,8 C 12,2 C 8,9 C 97 % 1020,4 hPa 0,0 l/m 0 min 2 min 74 W/m 3,2 km/h (1 Bft) 93,62 %
27.05.2022 07:54 12,8 C 12,2 C 8,9 C 97 % 1020,4 hPa 0,0 l/m 0 min 0 min 82 W/m 9,7 km/h (2 Bft) 95,74 %
27.05.2022 07:56 12,9 C 12,2 C 8,9 C 97 % 1020,5 hPa 0,0 l/m 0 min 0 min 96 W/m 3,2 km/h (1 Bft) 95,65 %
27.05.2022 07:58 12,9 C 12,2 C 8,9 C 97 % 1020,5 hPa 0,0 l/m 0 min 0 min 99 W/m 6,4 km/h (2 Bft) 95,74 %
27.05.2022 08:00 12,9 C 12,2 C 8,9 C 97 % 1020,5 hPa 0,0 l/m 0 min 0 min 77 W/m 6,4 km/h (2 Bft) 97,87 %
27.05.2022 08:02 12,9 C 12,2 C 8,9 C 97 % 1020,5 hPa 0,0 l/m 0 min 0 min 75 W/m 6,4 km/h (2 Bft) 93,62 %
27.05.2022 08:04 12,9 C 12,2 C 8,9 C 97 % 1020,5 hPa 0,0 l/m 0 min 0 min 81 W/m 3,2 km/h (1 Bft) 95,74 %
27.05.2022 08:06 12,9 C 12,2 C 8,9 C 97 % 1020,5 hPa 0,0 l/m 0 min 0 min 87 W/m 6,4 km/h (2 Bft) 93,48 %
27.05.2022 08:08 12,9 C 12,2 C 8,9 C 97 % 1020,5 hPa 0,0 l/m 0 min 0 min 74 W/m 3,2 km/h (1 Bft) 95,74 %
27.05.2022 08:10 13,0 C 12,2 C 8,9 C 97 % 1020,5 hPa 0,0 l/m 0 min 0 min 63 W/m 6,4 km/h (2 Bft) 93,62 %
27.05.2022 08:12 13,0 C 12,8 C 8,9 C 97 % 1020,5 hPa 0,0 l/m 0 min 0 min 68 W/m 3,2 km/h (1 Bft) 94,29 %
27.05.2022 08:14 13,0 C 12,8 C 8,9 C 97 % 1020,5 hPa 0,0 l/m 0 min 0 min 69 W/m 3,2 km/h (1 Bft) 96,61 %
27.05.2022 08:16 13,1 C 12,8 C 9,4 C 97 % 1020,5 hPa 0,0 l/m 0 min 0 min 69 W/m 9,7 km/h (2 Bft) 100,00 %
27.05.2022 08:18 13,1 C 12,8 C 8,9 C 97 % 1020,6 hPa 0,0 l/m 0 min 0 min 88 W/m 6,4 km/h (2 Bft) 96,55 %
27.05.2022 08:20 13,1 C 12,8 C 8,9 C 97 % 1020,6 hPa 0,0 l/m 0 min 0 min 79 W/m 6,4 km/h (2 Bft) 95,74 %
27.05.2022 08:22 13,1 C 12,8 C 8,9 C 97 % 1020,6 hPa 0,0 l/m 0 min 0 min 72 W/m 6,4 km/h (2 Bft) 97,87 %
27.05.2022 08:24 13,1 C 12,8 C 8,9 C 97 % 1020,7 hPa 0,0 l/m 0 min 0 min 68 W/m 6,4 km/h (2 Bft) 95,74 %
27.05.2022 08:26 13,1 C 12,8 C 9,4 C 97 % 1020,7 hPa 0,0 l/m 0 min 2 min 75 W/m 6,4 km/h (2 Bft) 95,74 %
27.05.2022 08:28 13,1 C 12,8 C 9,4 C 97 % 1020,6 hPa 0,0 l/m 0 min 0 min 81 W/m 6,4 km/h (2 Bft) 97,87 %
27.05.2022 08:30 13,1 C 12,8 C 8,9 C 97 % 1020,6 hPa 0,0 l/m 0 min 0 min 64 W/m 6,4 km/h (2 Bft) 97,87 %
27.05.2022 08:32 13,1 C 12,8 C 8,9 C 97 % 1020,6 hPa 0,0 l/m 0 min 0 min 47 W/m 3,2 km/h (1 Bft) 97,83 %
27.05.2022 08:34 13,1 C 12,2 C 8,9 C 97 % 1020,6 hPa 0,0 l/m 0 min 0 min 35 W/m 3,2 km/h (1 Bft) 97,87 %
27.05.2022 08:36 13,1 C 12,2 C 8,9 C 97 % 1020,7 hPa 0,0 l/m 0 min 0 min 37 W/m 3,2 km/h (1 Bft) 87,23 %
27.05.2022 08:38 13,1 C 12,2 C 8,9 C 97 % 1020,7 hPa 0,0 l/m 0 min 0 min 48 W/m 6,4 km/h (2 Bft) 91,49 %
27.05.2022 08:40 13,1 C 12,2 C 8,9 C 97 % 1020,8 hPa 0,0 l/m 0 min 0 min 45 W/m 12,9 km/h (3 Bft) 97,87 %
27.05.2022 08:42 13,1 C 12,2 C 8,9 C 97 % 1020,7 hPa 0,0 l/m 0 min 2 min 41 W/m 3,2 km/h (1 Bft) 97,14 %
27.05.2022 08:44 13,1 C 12,2 C 8,9 C 97 % 1020,7 hPa 0,0 l/m 0 min 0 min 45 W/m 9,7 km/h (2 Bft) 89,36 %
27.05.2022 08:46 13,1 C 12,2 C 8,9 C 97 % 1020,7 hPa 0,0 l/m 0 min 0 min 61 W/m 3,2 km/h (1 Bft) 76,09 %
27.05.2022 08:48 13,0 C 12,8 C 8,9 C 97 % 1020,7 hPa 0,0 l/m 0 min 0 min 85 W/m 3,2 km/h (1 Bft) 89,58 %
27.05.2022 08:50 13,1 C 12,8 C 8,9 C 97 % 1020,7 hPa 0,0 l/m 0 min 0 min 94 W/m 6,4 km/h (2 Bft) 93,62 %
27.05.2022 08:52 13,1 C 12,8 C 8,9 C 97 % 1020,7 hPa 0,0 l/m 0 min 0 min 84 W/m 6,4 km/h (2 Bft) 93,62 %
27.05.2022 08:54 13,1 C 12,8 C 8,9 C 97 % 1020,7 hPa 0,0 l/m 0 min 0 min 103 W/m 6,4 km/h (2 Bft) 87,23 %
27.05.2022 08:56 13,1 C 12,8 C 9,4 C 97 % 1020,8 hPa 0,0 l/m 0 min 0 min 89 W/m 3,2 km/h (1 Bft) 100,00 %
27.05.2022 08:58 13,1 C 12,8 C 8,9 C 97 % 1020,8 hPa 0,0 l/m 0 min 0 min 80 W/m 3,2 km/h (1 Bft) 100,00 %
27.05.2022 09:00 13,1 C 12,8 C 9,4 C 97 % 1020,8 hPa 0,0 l/m 0 min 0 min 82 W/m 6,4 km/h (2 Bft) 100,00 %
27.05.2022 09:02 13,1 C 12,8 C 9,4 C 97 % 1020,8 hPa 0,0 l/m 0 min 0 min 101 W/m 3,2 km/h (1 Bft) 95,74 %
27.05.2022 09:04 13,1 C 12,8 C 9,4 C 97 % 1020,8 hPa 0,0 l/m 0 min 0 min 112 W/m 3,2 km/h (1 Bft) 55,32 %
27.05.2022 09:06 13,1 C 12,8 C 9,4 C 97 % 1020,9 hPa 0,0 l/m 0 min 0 min 135 W/m 9,7 km/h (2 Bft) 68,09 %
27.05.2022 09:08 13,2 C 13,3 C 9,4 C 97 % 1020,9 hPa 0,0 l/m 0 min 0 min 137 W/m 3,2 km/h (1 Bft) 85,11 %
27.05.2022 09:10 13,2 C 13,3 C 9,4 C 97 % 1020,8 hPa 0,0 l/m 0 min 0 min 129 W/m 6,4 km/h (2 Bft) 71,74 %
27.05.2022 09:12 13,3 C 13,3 C 9,4 C 97 % 1020,7 hPa 0,0 l/m 0 min 0 min 142 W/m 3,2 km/h (1 Bft) 95,74 %
27.05.2022 09:14 13,3 C 13,9 C 10,0 C 97 % 1020,7 hPa 0,0 l/m 0 min 0 min 188 W/m 6,4 km/h (2 Bft) 100,00 %
27.05.2022 09:16 13,4 C 15,0 C 10,0 C 97 % 1020,8 hPa 0,0 l/m 2 min 0 min 296 W/m 3,2 km/h (1 Bft) 95,74 %
27.05.2022 09:18 13,6 C 15,6 C 10,6 C 97 % 1020,8 hPa 0,0 l/m 2 min 0 min 359 W/m 9,7 km/h (2 Bft) 97,87 %
27.05.2022 09:20 13,7 C 15,6 C 10,6 C 97 % 1020,7 hPa 0,0 l/m 0 min 0 min 238 W/m 3,2 km/h (1 Bft) 97,87 %
27.05.2022 09:22 13,7 C 15,0 C 10,6 C 97 % 1020,8 hPa 0,0 l/m 0 min 0 min 189 W/m 3,2 km/h (1 Bft) 100,00 %
27.05.2022 09:24 13,8 C 15,0 C 10,6 C 97 % 1020,7 hPa 0,0 l/m 0 min 0 min 190 W/m 9,7 km/h (2 Bft) 80,85 %
27.05.2022 09:26 13,9 C 16,7 C 11,1 C 98 % 1020,6 hPa 0,0 l/m 0 min 0 min 252 W/m 3,2 km/h (1 Bft) 70,21 %
27.05.2022 09:28 14,1 C 17,2 C 11,1 C 97 % 1020,8 hPa 0,0 l/m 2 min 0 min 388 W/m 6,4 km/h (2 Bft) 100,00 %
27.05.2022 09:30 14,2 C 16,1 C 11,1 C 98 % 1020,9 hPa 0,0 l/m 2 min 0 min 303 W/m 16,1 km/h (3 Bft) 95,74 %
27.05.2022 09:32 14,3 C 15,6 C 11,1 C 98 % 1020,8 hPa 0,0 l/m 0 min 0 min 260 W/m 6,4 km/h (2 Bft) 100,00 %
27.05.2022 09:34 14,3 C 15,6 C 10,6 C 98 % 1020,7 hPa 0,0 l/m 0 min 0 min 255 W/m 9,7 km/h (2 Bft) 97,83 %
27.05.2022 09:36 14,3 C 15,6 C 11,1 C 97 % 1020,8 hPa 0,0 l/m 0 min 0 min 232 W/m 12,9 km/h (3 Bft) 97,87 %
27.05.2022 09:38 14,3 C 15,6 C 11,1 C 97 % 1020,9 hPa 0,0 l/m 0 min 0 min 209 W/m 12,9 km/h (3 Bft) 95,74 %
27.05.2022 09:40 14,4 C 16,7 C 11,7 C 97 % 1020,8 hPa 0,0 l/m 0 min 0 min 226 W/m 12,9 km/h (3 Bft) 95,74 %
27.05.2022 09:42 14,6 C 17,2 C 11,7 C 97 % 1020,7 hPa 0,0 l/m 2 min 0 min 559 W/m 6,4 km/h (2 Bft) 97,87 %
27.05.2022 09:44 14,7 C 17,8 C 12,2 C 97 % 1020,8 hPa 0,0 l/m 2 min 0 min 564 W/m 12,9 km/h (3 Bft) 97,87 %
27.05.2022 09:46 14,9 C 18,3 C 12,8 C 97 % 1020,8 hPa 0,0 l/m 2 min 0 min 621 W/m 9,7 km/h (2 Bft) 97,83 %
27.05.2022 09:48 15,1 C 17,8 C 12,2 C 97 % 1020,8 hPa 0,0 l/m 2 min 0 min 572 W/m 12,9 km/h (3 Bft) 97,87 %
27.05.2022 09:50 15,1 C 17,2 C 11,7 C 97 % 1020,8 hPa 0,0 l/m 0 min 0 min 289 W/m 12,9 km/h (3 Bft) 100,00 %
27.05.2022 09:52 15,2 C 17,8 C 12,2 C 97 % 1020,8 hPa 0,0 l/m 2 min 0 min 650 W/m 9,7 km/h (2 Bft) 97,87 %
27.05.2022 09:54 15,2 C 17,8 C 12,2 C 97 % 1020,7 hPa 0,0 l/m 2 min 0 min 651 W/m 6,4 km/h (2 Bft) 97,87 %
27.05.2022 09:56 15,3 C 17,2 C 11,7 C 97 % 1020,8 hPa 0,0 l/m 0 min 0 min 230 W/m 12,9 km/h (3 Bft) 95,74 %
27.05.2022 09:58 15,3 C 17,2 C 11,7 C 96 % 1020,8 hPa 0,0 l/m 0 min 0 min 189 W/m 12,9 km/h (3 Bft) 95,65 %
27.05.2022 10:00 15,3 C 17,8 C 12,2 C 96 % 1020,9 hPa 0,0 l/m 2 min 0 min 632 W/m 12,9 km/h (3 Bft) 97,87 %
27.05.2022 10:02 15,4 C 18,3 C 12,2 C 95 % 1020,9 hPa 0,0 l/m 2 min 0 min 689 W/m 12,9 km/h (3 Bft) 97,87 %
27.05.2022 10:04 15,5 C 18,3 C 12,2 C 95 % 1020,8 hPa 0,0 l/m 2 min 0 min 714 W/m 9,7 km/h (2 Bft) 97,87 %
27.05.2022 10:06 15,6 C 18,3 C 12,2 C 94 % 1020,8 hPa 0,0 l/m 2 min 0 min 650 W/m 22,5 km/h (4 Bft) 95,74 %
27.05.2022 10:08 15,7 C 18,3 C 12,2 C 94 % 1020,8 hPa 0,0 l/m 2 min 0 min 527 W/m 9,7 km/h (2 Bft) 97,83 %
27.05.2022 10:10 15,7 C 18,3 C 12,2 C 93 % 1020,8 hPa 0,0 l/m 2 min 0 min 534 W/m 12,9 km/h (3 Bft) 93,62 %
27.05.2022 10:12 15,8 C 17,8 C 12,2 C 93 % 1020,8 hPa 0,0 l/m 2 min 0 min 357 W/m 12,9 km/h (3 Bft) 95,74 %
27.05.2022 10:14 15,8 C 17,2 C 11,7 C 92 % 1020,8 hPa 0,0 l/m 0 min 0 min 221 W/m 19,3 km/h (3 Bft) 97,87 %
27.05.2022 10:16 15,8 C 17,8 C 12,2 C 91 % 1020,8 hPa 0,0 l/m 2 min 0 min 524 W/m 16,1 km/h (3 Bft) 100,00 %
27.05.2022 10:18 15,8 C 17,2 C 11,7 C 90 % 1020,8 hPa 0,0 l/m 2 min 0 min 499 W/m 9,7 km/h (2 Bft) 97,87 %
27.05.2022 10:20 15,9 C 17,2 C 11,7 C 90 % 1020,8 hPa 0,0 l/m 2 min 0 min 346 W/m 12,9 km/h (3 Bft) 97,87 %
27.05.2022 10:22 15,9 C 17,2 C 12,2 C 89 % 1020,9 hPa 0,0 l/m 2 min 0 min 613 W/m 12,9 km/h (3 Bft) 97,83 %
27.05.2022 10:24 16,1 C 17,2 C 12,2 C 88 % 1020,9 hPa 0,0 l/m 2 min 0 min 828 W/m 19,3 km/h (3 Bft) 95,74 %
27.05.2022 10:26 16,2 C 17,2 C 12,2 C 88 % 1020,9 hPa 0,0 l/m 2 min 0 min 413 W/m 19,3 km/h (3 Bft) 93,62 %
27.05.2022 10:28 16,2 C 17,2 C 12,2 C 88 % 1020,9 hPa 0,0 l/m 2 min 0 min 362 W/m 12,9 km/h (3 Bft) 97,87 %
27.05.2022 10:30 16,3 C 17,2 C 12,2 C 87 % 1020,9 hPa 0,0 l/m 2 min 0 min 362 W/m 16,1 km/h (3 Bft) 97,87 %
27.05.2022 10:32 16,4 C 17,2 C 12,2 C 86 % 1020,9 hPa 0,0 l/m 2 min 0 min 362 W/m 16,1 km/h (3 Bft) 97,83 %
27.05.2022 10:34 16,5 C 17,2 C 12,2 C 86 % 1021,0 hPa 0,0 l/m 2 min 0 min 786 W/m 12,9 km/h (3 Bft) 97,87 %
27.05.2022 10:36 16,5 C 17,2 C 11,1 C 84 % 1021,0 hPa 0,0 l/m 0 min 0 min 219 W/m 16,1 km/h (3 Bft) 97,87 %
27.05.2022 10:38 16,5 C 16,7 C 11,1 C 84 % 1021,0 hPa 0,0 l/m 0 min 0 min 229 W/m 16,1 km/h (3 Bft) 100,00 %
27.05.2022 10:40 16,5 C 16,7 C 11,7 C 84 % 1021,0 hPa 0,0 l/m 0 min 0 min 229 W/m 12,9 km/h (3 Bft) 97,87 %
27.05.2022 10:42 16,5 C 17,2 C 11,7 C 83 % 1021,0 hPa 0,0 l/m 0 min 0 min 229 W/m 19,3 km/h (3 Bft) 100,00 %
27.05.2022 10:44 16,4 C 17,2 C 13,3 C 81 % 1021,0 hPa 0,0 l/m 2 min 0 min 689 W/m 22,5 km/h (4 Bft) 95,65 %
27.05.2022 10:46 16,5 C 17,8 C 13,3 C 80 % 1021,0 hPa 0,0 l/m 2 min 0 min 782 W/m 22,5 km/h (4 Bft) 97,87 %
27.05.2022 10:48 16,6 C 17,8 C 13,3 C 80 % 1021,1 hPa 0,0 l/m 2 min 0 min 392 W/m 12,9 km/h (3 Bft) 100,00 %
27.05.2022 10:50 16,6 C 17,8 C 13,9 C 80 % 1021,0 hPa 0,0 l/m 2 min 0 min 728 W/m 12,9 km/h (3 Bft) 100,00 %
27.05.2022 10:52 16,8 C 18,3 C 13,9 C 80 % 1021,0 hPa 0,0 l/m 2 min 0 min 781 W/m 16,1 km/h (3 Bft) 97,87 %
27.05.2022 10:54 16,9 C 18,9 C 13,9 C 81 % 1020,9 hPa 0,0 l/m 2 min 0 min 774 W/m 22,5 km/h (4 Bft) 100,00 %
27.05.2022 10:56 17,1 C 18,3 C 13,9 C 80 % 1020,9 hPa 0,0 l/m 2 min 0 min 808 W/m 19,3 km/h (3 Bft) 100,00 %
27.05.2022 10:58 17,2 C 18,9 C 13,9 C 78 % 1021,0 hPa 0,0 l/m 2 min 0 min 836 W/m 19,3 km/h (3 Bft) 100,00 %
27.05.2022 11:00 17,2 C 19,4 C 13,9 C 78 % 1021,0 hPa 0,0 l/m 2 min 0 min 863 W/m 25,7 km/h (4 Bft) 97,92 %
27.05.2022 11:02 17,3 C 18,9 C 13,9 C 77 % 1020,9 hPa 0,0 l/m 2 min 0 min 498 W/m 12,9 km/h (3 Bft) 100,00 %
27.05.2022 11:04 17,3 C 18,9 C 13,9 C 77 % 1020,9 hPa 0,0 l/m 2 min 0 min 570 W/m 19,3 km/h (3 Bft) 100,00 %
27.05.2022 11:06 17,3 C 19,4 C 13,9 C 75 % 1020,9 hPa 0,0 l/m 2 min 0 min 819 W/m 19,3 km/h (3 Bft) 97,87 %
27.05.2022 11:08 17,4 C 19,4 C 14,4 C 75 % 1021,1 hPa 0,0 l/m 2 min 0 min 825 W/m 19,3 km/h (3 Bft) 100,00 %
27.05.2022 11:10 17,5 C 20,0 C 14,4 C 75 % 1020,9 hPa 0,0 l/m 2 min 0 min 851 W/m 16,1 km/h (3 Bft) 100,00 %
27.05.2022 11:12 17,6 C 20,0 C 14,4 C 74 % 1020,9 hPa 0,0 l/m 2 min 0 min 878 W/m 22,5 km/h (4 Bft) 97,87 %
27.05.2022 11:14 17,7 C 20,0 C 14,4 C 74 % 1020,8 hPa 0,0 l/m 2 min 0 min 887 W/m 16,1 km/h (3 Bft) 100,00 %
27.05.2022 11:16 17,8 C 20,0 C 15,0 C 74 % 1020,8 hPa 0,0 l/m 2 min 0 min 909 W/m 19,3 km/h (3 Bft) 97,87 %
27.05.2022 11:18 17,8 C 20,0 C 15,0 C 73 % 1020,8 hPa 0,0 l/m 2 min 0 min 963 W/m 19,3 km/h (3 Bft) 100,00 %
27.05.2022 11:20 17,9 C 18,9 C 15,0 C 73 % 1020,8 hPa 0,0 l/m 2 min 0 min 704 W/m 22,5 km/h (4 Bft) 100,00 %
27.05.2022 11:22 17,8 C 18,9 C 15,0 C 73 % 1020,7 hPa 0,0 l/m 2 min 0 min 621 W/m 19,3 km/h (3 Bft) 97,87 %
27.05.2022 11:24 17,7 C 17,8 C 14,4 C 73 % 1020,8 hPa 0,0 l/m 0 min 0 min 342 W/m 19,3 km/h (3 Bft) 100,00 %
27.05.2022 11:26 17,7 C 18,3 C 15,0 C 73 % 1020,8 hPa 0,0 l/m 0 min 0 min 293 W/m 19,3 km/h (3 Bft) 95,74 %
27.05.2022 11:28 17,7 C 19,4 C 15,6 C 73 % 1020,8 hPa 0,0 l/m 2 min 0 min 709 W/m 12,9 km/h (3 Bft) 100,00 %
27.05.2022 11:30 17,8 C 20,0 C 16,7 C 74 % 1020,9 hPa 0,0 l/m 2 min 0 min 961 W/m 22,5 km/h (4 Bft) 100,00 %
27.05.2022 11:32 17,9 C 19,4 C 16,7 C 74 % 1020,9 hPa 0,0 l/m 2 min 0 min 995 W/m 19,3 km/h (3 Bft) 100,00 %
27.05.2022 11:34 17,9 C 19,4 C 16,7 C 73 % 1020,8 hPa 0,0 l/m 2 min 0 min 1040 W/m 12,9 km/h (3 Bft) 97,87 %
27.05.2022 11:36 18,1 C 19,4 C 16,1 C 73 % 1020,8 hPa 0,0 l/m 2 min 0 min 431 W/m 16,1 km/h (3 Bft) 100,00 %
27.05.2022 11:38 18,1 C 20,0 C 16,7 C 74 % 1020,9 hPa 0,0 l/m 0 min 0 min 320 W/m 9,7 km/h (2 Bft) 95,74 %
27.05.2022 11:40 18,2 C 19,4 C 16,1 C 73 % 1020,9 hPa 0,0 l/m 0 min 0 min 309 W/m 12,9 km/h (3 Bft) 95,74 %
27.05.2022 11:42 18,1 C 18,9 C 16,1 C 72 % 1020,9 hPa 0,0 l/m 0 min 0 min 311 W/m 16,1 km/h (3 Bft) 95,74 %
27.05.2022 11:44 18,1 C 18,9 C 15,6 C 73 % 1021,0 hPa 0,0 l/m 0 min 0 min 286 W/m 19,3 km/h (3 Bft) 93,48 %
27.05.2022 11:46 18,1 C 17,8 C 14,4 C 72 % 1020,9 hPa 0,0 l/m 0 min 0 min 117 W/m 16,1 km/h (3 Bft) 95,74 %
27.05.2022 11:48 17,9 C 17,8 C 13,9 C 73 % 1021,0 hPa 0,0 l/m 0 min 0 min 72 W/m 16,1 km/h (3 Bft) 95,74 %
27.05.2022 11:50 17,8 C 17,2 C 13,3 C 73 % 1020,9 hPa 0,0 l/m 0 min 0 min 99 W/m 16,1 km/h (3 Bft) 95,74 %
27.05.2022 11:52 17,6 C 16,7 C 13,3 C 73 % 1020,9 hPa 0,0 l/m 0 min 0 min 117 W/m 22,5 km/h (4 Bft) 95,74 %
27.05.2022 11:54 17,3 C 16,7 C 12,8 C 74 % 1021,0 hPa 0,0 l/m 0 min 0 min 77 W/m 19,3 km/h (3 Bft) 97,87 %
27.05.2022 11:56 17,2 C 16,1 C 12,8 C 74 % 1021,0 hPa 0,0 l/m 0 min 2 min 82 W/m 12,9 km/h (3 Bft) 95,74 %
27.05.2022 11:58 17,1 C 16,1 C 12,8 C 75 % 1021,1 hPa 0,0 l/m 0 min 0 min 119 W/m 12,9 km/h (3 Bft) 95,74 %
27.05.2022 12:00 16,9 C 16,1 C 12,8 C 75 % 1021,2 hPa 0,0 l/m 0 min 0 min 131 W/m 19,3 km/h (3 Bft) 95,74 %
27.05.2022 12:02 16,8 C 16,1 C 12,8 C 74 % 1021,0 hPa 0,0 l/m 0 min 0 min 145 W/m 25,7 km/h (4 Bft) 93,62 %
27.05.2022 12:04 16,7 C 16,1 C 12,8 C 75 % 1021,1 hPa 0,0 l/m 0 min 0 min 161 W/m 9,7 km/h (2 Bft) 95,74 %
27.05.2022 12:08 16,6 C 16,1 C 12,8 C 76 % 1021,2 hPa 0,0 l/m 0 min 0 min 178 W/m 12,9 km/h (3 Bft) 93,55 %
27.05.2022 12:10 16,6 C 16,1 C 12,8 C 76 % 1021,1 hPa 0,0 l/m 0 min 0 min 221 W/m 19,3 km/h (3 Bft) 93,62 %
27.05.2022 12:12 16,6 C 16,7 C 12,8 C 76 % 1021,1 hPa 0,0 l/m 0 min 0 min 258 W/m 16,1 km/h (3 Bft) 95,74 %
27.05.2022 12:14 16,6 C 16,7 C 13,3 C 76 % 1021,0 hPa 0,0 l/m 0 min 0 min 262 W/m 9,7 km/h (2 Bft) 97,87 %
27.05.2022 12:16 16,6 C 17,8 C 16,1 C 76 % 1021,1 hPa 0,0 l/m 2 min 0 min 768 W/m 16,1 km/h (3 Bft) 97,87 %
27.05.2022 12:18 16,7 C 18,3 C 17,8 C 76 % 1021,1 hPa 0,0 l/m 2 min 0 min 900 W/m 19,3 km/h (3 Bft) 97,83 %
27.05.2022 12:20 16,9 C 19,4 C 19,4 C 76 % 1021,1 hPa 0,0 l/m 2 min 0 min 901 W/m 25,7 km/h (4 Bft) 97,87 %
27.05.2022 12:22 17,1 C 19,4 C 20,0 C 75 % 1021,0 hPa 0,0 l/m 2 min 0 min 901 W/m 16,1 km/h (3 Bft) 97,87 %
27.05.2022 12:24 17,3 C 20,0 C 20,0 C 74 % 1021,0 hPa 0,0 l/m 2 min 0 min 905 W/m 16,1 km/h (3 Bft) 97,87 %
27.05.2022 12:26 17,5 C 20,0 C 21,1 C 74 % 1021,1 hPa 0,0 l/m 2 min 0 min 907 W/m 16,1 km/h (3 Bft) 95,74 %
27.05.2022 12:28 17,7 C 20,0 C 21,1 C 72 % 1021,0 hPa 0,0 l/m 2 min 0 min 918 W/m 22,5 km/h (4 Bft) 97,87 %
27.05.2022 12:30 17,8 C 20,0 C 21,1 C 73 % 1021,0 hPa 0,0 l/m 2 min 0 min 936 W/m 22,5 km/h (4 Bft) 97,83 %
27.05.2022 12:32 17,9 C 20,0 C 21,7 C 71 % 1021,0 hPa 0,0 l/m 2 min 0 min 937 W/m 19,3 km/h (3 Bft) 97,87 %
27.05.2022 12:34 18,2 C 20,6 C 22,2 C 72 % 1021,0 hPa 0,0 l/m 2 min 0 min 960 W/m 12,9 km/h (3 Bft) 95,74 %
27.05.2022 12:36 18,4 C 21,1 C 22,8 C 73 % 1021,0 hPa 0,0 l/m 2 min 0 min 1038 W/m 16,1 km/h (3 Bft) 97,87 %
27.05.2022 12:38 18,6 C 21,1 C 22,8 C 72 % 1021,1 hPa 0,0 l/m 2 min 0 min 1046 W/m 16,1 km/h (3 Bft) 95,74 %
27.05.2022 12:40 18,7 C 21,1 C 21,7 C 71 % 1021,0 hPa 0,0 l/m 2 min 0 min 1046 W/m 19,3 km/h (3 Bft) 95,74 %
27.05.2022 12:42 18,8 C 21,1 C 21,7 C 70 % 1021,0 hPa 0,0 l/m 2 min 0 min 1045 W/m 12,9 km/h (3 Bft) 93,62 %
27.05.2022 12:44 18,9 C 21,1 C 22,2 C 70 % 1021,0 hPa 0,0 l/m 2 min 0 min 1007 W/m 25,7 km/h (4 Bft) 93,48 %
27.05.2022 12:46 19,0 C 21,1 C 22,8 C 68 % 1021,0 hPa 0,0 l/m 2 min 0 min 964 W/m 16,1 km/h (3 Bft) 95,74 %
27.05.2022 12:48 19,1 C 21,1 C 23,3 C 69 % 1021,0 hPa 0,0 l/m 2 min 0 min 968 W/m 16,1 km/h (3 Bft) 95,74 %
27.05.2022 12:50 19,2 C 20,6 C 22,8 C 68 % 1021,0 hPa 0,0 l/m 2 min 0 min 970 W/m 22,5 km/h (4 Bft) 93,62 %
27.05.2022 12:52 19,2 C 20,6 C 22,8 C 68 % 1021,0 hPa 0,0 l/m 2 min 0 min 956 W/m 12,9 km/h (3 Bft) 95,74 %
27.05.2022 12:54 19,2 C 20,0 C 20,6 C 68 % 1021,0 hPa 0,0 l/m 2 min 0 min 1030 W/m 22,5 km/h (4 Bft) 95,65 %
27.05.2022 12:56 19,2 C 20,0 C 21,1 C 68 % 1021,0 hPa 0,0 l/m 2 min 0 min 999 W/m 22,5 km/h (4 Bft) 97,87 %
27.05.2022 12:58 19,2 C 20,0 C 21,1 C 67 % 1021,0 hPa 0,0 l/m 2 min 0 min 986 W/m 22,5 km/h (4 Bft) 97,87 %
27.05.2022 13:00 19,2 C 20,6 C 22,2 C 67 % 1020,9 hPa 0,0 l/m 2 min 0 min 969 W/m 29,0 km/h (5 Bft) 97,87 %
27.05.2022 13:02 19,3 C 21,1 C 22,8 C 67 % 1020,9 hPa 0,0 l/m 2 min 0 min 973 W/m 19,3 km/h (3 Bft) 95,74 %
27.05.2022 13:04 19,4 C 21,1 C 22,8 C 68 % 1020,9 hPa 0,0 l/m 2 min 0 min 1007 W/m 22,5 km/h (4 Bft) 97,87 %
27.05.2022 13:06 19,3 C 20,0 C 21,1 C 66 % 1020,9 hPa 0,0 l/m 2 min 0 min 581 W/m 22,5 km/h (4 Bft) 97,83 %
27.05.2022 13:08 19,3 C 20,6 C 22,2 C 67 % 1020,8 hPa 0,0 l/m 2 min 0 min 795 W/m 12,9 km/h (3 Bft) 97,87 %
27.05.2022 13:10 19,4 C 20,6 C 22,8 C 65 % 1020,8 hPa 0,2 l/m 2 min 0 min 991 W/m 25,7 km/h (4 Bft) 97,87 %
27.05.2022 13:12 19,4 C 20,6 C 22,2 C 65 % 1020,9 hPa 0,0 l/m 2 min 0 min 968 W/m 22,5 km/h (4 Bft) 97,87 %
27.05.2022 13:14 19,4 C 20,6 C 21,1 C 63 % 1020,9 hPa 0,0 l/m 2 min 0 min 972 W/m 19,3 km/h (3 Bft) 97,87 %
27.05.2022 13:16 19,4 C 20,6 C 20,6 C 63 % 1020,8 hPa 0,0 l/m 2 min 0 min 980 W/m 19,3 km/h (3 Bft) 97,87 %
27.05.2022 13:18 19,6 C 20,6 C 21,1 C 63 % 1020,8 hPa 0,0 l/m 2 min 0 min 998 W/m 22,5 km/h (4 Bft) 95,65 %
27.05.2022 13:20 19,6 C 20,0 C 20,6 C 63 % 1020,8 hPa 0,0 l/m 2 min 0 min 1017 W/m 25,7 km/h (4 Bft) 100,00 %
27.05.2022 13:22 19,6 C 20,0 C 21,1 C 64 % 1020,9 hPa 0,0 l/m 2 min 0 min 1034 W/m 35,4 km/h (5 Bft) 100,00 %
27.05.2022 13:24 19,4 C 20,0 C 20,0 C 65 % 1020,8 hPa 0,0 l/m 2 min 0 min 618 W/m 25,7 km/h (4 Bft) 97,87 %
27.05.2022 13:26 19,3 C 19,4 C 18,9 C 64 % 1020,9 hPa 0,0 l/m 0 min 0 min 295 W/m 35,4 km/h (5 Bft) 97,87 %
27.05.2022 13:28 19,2 C 19,4 C 17,8 C 64 % 1021,0 hPa 0,0 l/m 0 min 0 min 277 W/m 35,4 km/h (5 Bft) 97,87 %
27.05.2022 13:30 19,0 C 19,4 C 18,9 C 64 % 1020,9 hPa 0,0 l/m 0 min 0 min 338 W/m 29,0 km/h (5 Bft) 100,00 %
27.05.2022 13:32 18,9 C 19,4 C 18,3 C 64 % 1020,9 hPa 0,0 l/m 2 min 0 min 771 W/m 35,4 km/h (5 Bft) 100,00 %
27.05.2022 13:34 18,8 C 18,9 C 17,2 C 64 % 1020,9 hPa 0,0 l/m 0 min 0 min 156 W/m 29,0 km/h (5 Bft) 95,74 %
27.05.2022 13:36 18,6 C 19,4 C 18,9 C 64 % 1021,0 hPa 0,0 l/m 0 min 0 min 339 W/m 29,0 km/h (5 Bft) 100,00 %
27.05.2022 13:38 18,6 C 20,0 C 20,6 C 63 % 1021,0 hPa 0,0 l/m 2 min 0 min 980 W/m 22,5 km/h (4 Bft) 100,00 %
27.05.2022 13:40 18,7 C 20,6 C 21,1 C 63 % 1021,0 hPa 0,0 l/m 2 min 0 min 1001 W/m 29,0 km/h (5 Bft) 100,00 %
27.05.2022 13:42 18,8 C 20,6 C 21,7 C 63 % 1021,0 hPa 0,0 l/m 2 min 0 min 1014 W/m 22,5 km/h (4 Bft) 97,83 %
27.05.2022 13:44 19,0 C 21,1 C 22,2 C 62 % 1021,0 hPa 0,0 l/m 2 min 0 min 1069 W/m 32,2 km/h (5 Bft) 97,87 %
27.05.2022 13:46 19,1 C 21,1 C 21,7 C 63 % 1020,9 hPa 0,0 l/m 2 min 0 min 1108 W/m 29,0 km/h (5 Bft) 97,87 %
27.05.2022 13:48 19,2 C 21,1 C 21,1 C 63 % 1020,9 hPa 0,0 l/m 2 min 0 min 1151 W/m 16,1 km/h (3 Bft) 95,74 %
27.05.2022 13:50 19,3 C 20,6 C 18,9 C 63 % 1021,1 hPa 0,0 l/m 2 min 0 min 853 W/m 29,0 km/h (5 Bft) 97,87 %
27.05.2022 13:52 19,2 C 20,6 C 18,3 C 62 % 1021,0 hPa 0,0 l/m 2 min 0 min 656 W/m 22,5 km/h (4 Bft) 97,87 %
27.05.2022 13:54 19,3 C 21,1 C 18,3 C 64 % 1020,9 hPa 0,0 l/m 2 min 0 min 1002 W/m 16,1 km/h (3 Bft) 97,83 %
27.05.2022 13:56 19,4 C 21,1 C 17,8 C 63 % 1021,0 hPa 0,0 l/m 2 min 0 min 985 W/m 29,0 km/h (5 Bft) 97,87 %
27.05.2022 13:58 19,4 C 21,7 C 17,8 C 61 % 1020,9 hPa 0,0 l/m 2 min 0 min 998 W/m 25,7 km/h (4 Bft) 97,87 %
27.05.2022 14:00 19,4 C 20,6 C 16,7 C 60 % 1021,0 hPa 0,0 l/m 2 min 0 min 1009 W/m 25,7 km/h (4 Bft) 97,87 %
27.05.2022 14:02 19,4 C 20,6 C 16,7 C 61 % 1021,0 hPa 0,0 l/m 2 min 0 min 1009 W/m 16,1 km/h (3 Bft) 97,87 %
27.05.2022 14:04 19,3 C 20,0 C 16,1 C 59 % 1021,1 hPa 0,0 l/m 2 min 0 min 1009 W/m 32,2 km/h (5 Bft) 97,87 %
27.05.2022 14:06 19,1 C 19,4 C 16,1 C 59 % 1021,1 hPa 0,0 l/m 2 min 0 min 436 W/m 45,1 km/h (6 Bft) 95,65 %
27.05.2022 14:08 19,0 C 20,0 C 16,1 C 60 % 1021,0 hPa 0,0 l/m 2 min 0 min 865 W/m 16,1 km/h (3 Bft) 97,87 %
27.05.2022 14:10 19,1 C 20,6 C 16,1 C 59 % 1021,0 hPa 0,0 l/m 2 min 0 min 976 W/m 19,3 km/h (3 Bft) 97,87 %
27.05.2022 14:12 19,2 C 21,1 C 16,1 C 59 % 1020,9 hPa 0,0 l/m 2 min 0 min 989 W/m 38,6 km/h (5 Bft) 97,87 %
27.05.2022 14:14 19,4 C 21,7 C 16,7 C 59 % 1021,0 hPa 0,0 l/m 2 min 0 min 1038 W/m 29,0 km/h (5 Bft) 100,00 %
27.05.2022 14:16 19,5 C 21,1 C 16,7 C 59 % 1021,1 hPa 0,0 l/m 2 min 0 min 620 W/m 22,5 km/h (4 Bft) 97,87 %
27.05.2022 14:18 19,6 C 20,6 C 16,7 C 58 % 1020,9 hPa 0,0 l/m 0 min 0 min 260 W/m 38,6 km/h (5 Bft) 100,00 %
27.05.2022 14:20 19,7 C 21,1 C 16,7 C 59 % 1021,1 hPa 0,0 l/m 2 min 0 min 897 W/m 22,5 km/h (4 Bft) 100,00 %
27.05.2022 14:22 19,8 C 22,2 C 16,7 C 57 % 1021,0 hPa 0,0 l/m 2 min 0 min 999 W/m 35,4 km/h (5 Bft) 100,00 %
27.05.2022 14:24 19,9 C 22,8 C 16,7 C 59 % 1021,0 hPa 0,0 l/m 2 min 0 min 998 W/m 19,3 km/h (3 Bft) 100,00 %
27.05.2022 14:26 20,2 C 22,8 C 17,2 C 57 % 1021,1 hPa 0,0 l/m 2 min 0 min 1038 W/m 25,7 km/h (4 Bft) 100,00 %
27.05.2022 14:28 20,1 C 21,1 C 16,7 C 56 % 1021,1 hPa 0,0 l/m 2 min 0 min 581 W/m 25,7 km/h (4 Bft) 100,00 %
27.05.2022 14:30 19,8 C 20,0 C 16,7 C 57 % 1021,1 hPa 0,0 l/m 0 min 0 min 193 W/m 19,3 km/h (3 Bft) 97,83 %
27.05.2022 14:32 19,6 C 19,4 C 16,1 C 56 % 1021,2 hPa 0,0 l/m 0 min 0 min 190 W/m 29,0 km/h (5 Bft) 100,00 %
27.05.2022 14:34 19,4 C 20,0 C 16,1 C 56 % 1021,0 hPa 0,0 l/m 0 min 0 min 276 W/m 25,7 km/h (4 Bft) 100,00 %
27.05.2022 14:36 19,4 C 21,1 C 16,1 C 58 % 1021,0 hPa 0,0 l/m 2 min 0 min 954 W/m 22,5 km/h (4 Bft) 100,00 %
27.05.2022 14:38 19,5 C 21,1 C 16,1 C 57 % 1021,1 hPa 0,0 l/m 2 min 0 min 956 W/m 22,5 km/h (4 Bft) 97,87 %
27.05.2022 14:40 19,6 C 21,7 C 16,1 C 57 % 1021,0 hPa 0,0 l/m 2 min 0 min 974 W/m 22,5 km/h (4 Bft) 100,00 %
27.05.2022 14:42 19,8 C 22,2 C 16,1 C 57 % 1021,0 hPa 0,0 l/m 2 min 0 min 998 W/m 22,5 km/h (4 Bft) 100,00 %
27.05.2022 14:44 19,9 C 22,8 C 16,7 C 58 % 1021,1 hPa 0,0 l/m 2 min 0 min 1039 W/m 32,2 km/h (5 Bft) 100,00 %
27.05.2022 14:46 20,2 C 22,8 C 16,1 C 58 % 1021,1 hPa 0,0 l/m 2 min 0 min 1047 W/m 38,6 km/h (5 Bft) 95,74 %
27.05.2022 14:48 20,2 C 21,7 C 16,1 C 56 % 1021,0 hPa 0,0 l/m 2 min 0 min 1048 W/m 32,2 km/h (5 Bft) 100,00 %
27.05.2022 14:50 20,0 C 20,6 C 15,6 C 56 % 1021,1 hPa 0,0 l/m 2 min 0 min 662 W/m 29,0 km/h (5 Bft) 100,00 %
27.05.2022 14:52 19,8 C 20,0 C 15,6 C 56 % 1021,1 hPa 0,0 l/m 0 min 0 min 165 W/m 35,4 km/h (5 Bft) 95,74 %
27.05.2022 14:54 19,6 C 20,6 C 15,0 C 56 % 1021,1 hPa 0,0 l/m 2 min 0 min 753 W/m 35,4 km/h (5 Bft) 100,00 %
27.05.2022 14:56 19,6 C 21,1 C 15,6 C 56 % 1021,2 hPa 0,0 l/m 2 min 0 min 957 W/m 22,5 km/h (4 Bft) 97,87 %
27.05.2022 14:58 19,5 C 20,0 C 15,6 C 56 % 1021,0 hPa 0,0 l/m 2 min 0 min 469 W/m 22,5 km/h (4 Bft) 97,87 %
27.05.2022 15:00 19,3 C 19,4 C 15,0 C 56 % 1021,0 hPa 0,0 l/m 0 min 0 min 176 W/m 25,7 km/h (4 Bft) 100,00 %
27.05.2022 15:02 19,1 C 20,0 C 15,6 C 57 % 1021,1 hPa 0,0 l/m 2 min 0 min 542 W/m 12,9 km/h (3 Bft) 100,00 %
27.05.2022 15:04 19,1 C 20,6 C 15,6 C 55 % 1021,0 hPa 0,0 l/m 2 min 0 min 928 W/m 35,4 km/h (5 Bft) 100,00 %
27.05.2022 15:06 19,2 C 21,7 C 15,6 C 56 % 1021,0 hPa 0,0 l/m 2 min 0 min 907 W/m 22,5 km/h (4 Bft) 100,00 %
27.05.2022 15:08 19,3 C 21,7 C 15,6 C 57 % 1021,1 hPa 0,0 l/m 2 min 0 min 903 W/m 29,0 km/h (5 Bft) 97,87 %
27.05.2022 15:10 19,5 C 21,7 C 15,6 C 56 % 1021,2 hPa 0,0 l/m 2 min 0 min 899 W/m 32,2 km/h (5 Bft) 97,87 %
27.05.2022 15:12 19,6 C 22,2 C 15,6 C 55 % 1021,0 hPa 0,0 l/m 2 min 0 min 897 W/m 22,5 km/h (4 Bft) 93,62 %
27.05.2022 15:14 19,7 C 22,2 C 16,1 C 56 % 1021,1 hPa 0,0 l/m 2 min 0 min 906 W/m 22,5 km/h (4 Bft) 97,87 %
27.05.2022 15:16 19,8 C 22,8 C 16,1 C 57 % 1021,1 hPa 0,0 l/m 2 min 0 min 911 W/m 16,1 km/h (3 Bft) 97,87 %
27.05.2022 15:18 20,0 C 22,8 C 16,1 C 57 % 1021,1 hPa 0,0 l/m 2 min 0 min 913 W/m 32,2 km/h (5 Bft) 95,65 %
27.05.2022 15:20 20,1 C 22,2 C 16,1 C 56 % 1021,2 hPa 0,0 l/m 2 min 0 min 959 W/m 22,5 km/h (4 Bft) 95,74 %
27.05.2022 15:22 20,1 C 20,6 C 16,1 C 56 % 1021,1 hPa 0,0 l/m 2 min 0 min 454 W/m 29,0 km/h (5 Bft) 97,87 %
27.05.2022 15:24 19,9 C 20,6 C 15,6 C 55 % 1021,2 hPa 0,0 l/m 0 min 0 min 215 W/m 22,5 km/h (4 Bft) 97,87 %
27.05.2022 15:26 19,8 C 20,6 C 15,6 C 55 % 1021,0 hPa 0,0 l/m 0 min 0 min 234 W/m 25,7 km/h (4 Bft) 95,74 %
27.05.2022 15:28 19,8 C 20,6 C 15,6 C 56 % 1021,0 hPa 0,0 l/m 0 min 0 min 227 W/m 16,1 km/h (3 Bft) 97,87 %
27.05.2022 15:30 19,7 C 20,6 C 15,6 C 54 % 1021,1 hPa 0,0 l/m 0 min 0 min 223 W/m 38,6 km/h (5 Bft) 97,83 %
27.05.2022 15:32 19,7 C 21,7 C 15,6 C 56 % 1021,1 hPa 0,0 l/m 2 min 0 min 955 W/m 22,5 km/h (4 Bft) 97,87 %
27.05.2022 15:34 19,7 C 21,1 C 15,6 C 56 % 1021,1 hPa 0,0 l/m 2 min 0 min 782 W/m 29,0 km/h (5 Bft) 97,87 %
27.05.2022 15:36 19,7 C 21,1 C 15,6 C 56 % 1021,1 hPa 0,0 l/m 0 min 0 min 171 W/m 22,5 km/h (4 Bft) 95,74 %
27.05.2022 15:38 19,7 C 21,7 C 15,6 C 57 % 1021,0 hPa 0,0 l/m 0 min 0 min 171 W/m 25,7 km/h (4 Bft) 93,62 %
27.05.2022 15:40 19,7 C 21,7 C 15,6 C 57 % 1021,1 hPa 0,0 l/m 0 min 0 min 171 W/m 25,7 km/h (4 Bft) 95,74 %
27.05.2022 15:42 19,7 C 22,2 C 16,1 C 57 % 1021,1 hPa 0,0 l/m 2 min 0 min 840 W/m 19,3 km/h (3 Bft) 95,65 %
27.05.2022 15:44 19,7 C 22,2 C 16,1 C 57 % 1021,3 hPa 0,0 l/m 2 min 0 min 907 W/m 38,6 km/h (5 Bft) 95,74 %
27.05.2022 15:46 19,7 C 22,2 C 16,1 C 57 % 1021,2 hPa 0,0 l/m 2 min 0 min 891 W/m 25,7 km/h (4 Bft) 93,62 %
27.05.2022 15:48 19,8 C 22,8 C 16,1 C 58 % 1021,1 hPa 0,0 l/m 2 min 0 min 895 W/m 25,7 km/h (4 Bft) 93,62 %
27.05.2022 15:50 19,8 C 22,8 C 16,1 C 56 % 1021,1 hPa 0,0 l/m 2 min 0 min 872 W/m 35,4 km/h (5 Bft) 89,36 %
27.05.2022 15:52 19,8 C 22,8 C 16,1 C 56 % 1021,0 hPa 0,0 l/m 2 min 0 min 877 W/m 35,4 km/h (5 Bft) 95,74 %
27.05.2022 15:54 19,8 C 22,2 C 16,1 C 56 % 1021,1 hPa 0,0 l/m 2 min 0 min 924 W/m 32,2 km/h (5 Bft) 93,48 %
27.05.2022 15:56 19,8 C 21,1 C 15,6 C 56 % 1021,2 hPa 0,0 l/m 2 min 0 min 534 W/m 19,3 km/h (3 Bft) 91,49 %
27.05.2022 15:58 19,6 C 20,6 C 15,6 C 55 % 1021,2 hPa 0,0 l/m 0 min 0 min 236 W/m 29,0 km/h (5 Bft) 95,74 %
27.05.2022 16:00 19,4 C 20,6 C 15,0 C 56 % 1021,3 hPa 0,0 l/m 2 min 0 min 534 W/m 35,4 km/h (5 Bft) 95,74 %
27.05.2022 16:02 19,3 C 21,7 C 15,0 C 56 % 1021,3 hPa 0,0 l/m 2 min 0 min 749 W/m 38,6 km/h (5 Bft) 95,74 %
27.05.2022 16:04 19,3 C 22,2 C 15,6 C 56 % 1021,3 hPa 0,0 l/m 2 min 0 min 851 W/m 22,5 km/h (4 Bft) 95,74 %
27.05.2022 16:06 19,3 C 22,8 C 15,6 C 56 % 1021,2 hPa 0,0 l/m 2 min 0 min 880 W/m 29,0 km/h (5 Bft) 95,65 %
27.05.2022 16:08 19,3 C 22,8 C 15,6 C 56 % 1021,3 hPa 0,0 l/m 2 min 0 min 888 W/m 38,6 km/h (5 Bft) 95,74 %
27.05.2022 16:10 19,4 C 22,2 C 15,6 C 54 % 1021,2 hPa 0,0 l/m 2 min 0 min 905 W/m 19,3 km/h (3 Bft) 93,62 %
27.05.2022 16:12 19,5 C 22,8 C 16,1 C 55 % 1021,2 hPa 0,0 l/m 2 min 0 min 922 W/m 19,3 km/h (3 Bft) 93,62 %
27.05.2022 16:14 19,6 C 21,1 C 16,1 C 56 % 1021,2 hPa 0,0 l/m 2 min 0 min 491 W/m 19,3 km/h (3 Bft) 95,74 %
27.05.2022 16:16 19,6 C 21,1 C 15,6 C 55 % 1021,3 hPa 0,0 l/m 0 min 0 min 226 W/m 32,2 km/h (5 Bft) 97,87 %
27.05.2022 16:18 19,4 C 20,6 C 15,6 C 56 % 1021,2 hPa 0,0 l/m 0 min 0 min 237 W/m 35,4 km/h (5 Bft) 97,83 %
27.05.2022 16:20 19,3 C 21,7 C 15,6 C 56 % 1021,3 hPa 0,0 l/m 2 min 0 min 356 W/m 22,5 km/h (4 Bft) 97,87 %
27.05.2022 16:22 19,3 C 22,8 C 15,6 C 56 % 1021,3 hPa 0,0 l/m 2 min 0 min 855 W/m 32,2 km/h (5 Bft) 95,74 %
27.05.2022 16:24 19,3 C 23,3 C 15,6 C 54 % 1021,1 hPa 0,0 l/m 2 min 0 min 816 W/m 38,6 km/h (5 Bft) 95,74 %
27.05.2022 16:26 19,4 C 23,3 C 15,6 C 55 % 1021,3 hPa 0,0 l/m 2 min 0 min 788 W/m 22,5 km/h (4 Bft) 97,87 %
27.05.2022 16:28 19,4 C 22,8 C 15,6 C 55 % 1021,3 hPa 0,0 l/m 2 min 0 min 753 W/m 25,7 km/h (4 Bft) 97,87 %
27.05.2022 16:30 19,4 C 22,8 C 15,6 C 54 % 1021,4 hPa 0,0 l/m 2 min 0 min 704 W/m 19,3 km/h (3 Bft) 97,83 %
27.05.2022 16:32 19,5 C 23,3 C 15,6 C 55 % 1021,3 hPa 0,0 l/m 2 min 0 min 829 W/m 16,1 km/h (3 Bft) 97,87 %
27.05.2022 16:34 19,6 C 23,9 C 16,1 C 56 % 1021,4 hPa 0,0 l/m 2 min 0 min 807 W/m 35,4 km/h (5 Bft) 97,87 %
27.05.2022 16:36 19,7 C 23,9 C 16,1 C 56 % 1021,3 hPa 0,0 l/m 2 min 0 min 790 W/m 32,2 km/h (5 Bft) 95,74 %
27.05.2022 16:38 19,6 C 23,9 C 16,1 C 54 % 1021,3 hPa 0,0 l/m 2 min 0 min 780 W/m 25,7 km/h (4 Bft) 97,87 %
27.05.2022 16:40 19,6 C 23,9 C 16,1 C 54 % 1021,4 hPa 0,0 l/m 2 min 0 min 764 W/m 25,7 km/h (4 Bft) 97,87 %
27.05.2022 16:42 19,6 C 23,3 C 15,6 C 52 % 1021,4 hPa 0,0 l/m 2 min 0 min 746 W/m 29,0 km/h (5 Bft) 97,83 %
27.05.2022 16:44 19,5 C 23,3 C 15,6 C 52 % 1021,3 hPa 0,0 l/m 2 min 0 min 754 W/m 16,1 km/h (3 Bft) 97,87 %
27.05.2022 16:46 19,5 C 21,1 C 15,6 C 54 % 1021,4 hPa 0,0 l/m 2 min 0 min 550 W/m 25,7 km/h (4 Bft) 97,87 %
27.05.2022 16:48 19,3 C 20,6 C 15,6 C 53 % 1021,5 hPa 0,0 l/m 0 min 0 min 178 W/m 35,4 km/h (5 Bft) 97,87 %
27.05.2022 16:50 19,1 C 21,1 C 15,0 C 54 % 1021,5 hPa 0,0 l/m 2 min 0 min 325 W/m 22,5 km/h (4 Bft) 97,87 %
27.05.2022 16:52 19,1 C 22,2 C 15,6 C 54 % 1021,4 hPa 0,0 l/m 2 min 0 min 758 W/m 22,5 km/h (4 Bft) 97,87 %
27.05.2022 16:54 19,1 C 22,8 C 15,6 C 54 % 1021,6 hPa 0,0 l/m 2 min 0 min 739 W/m 19,3 km/h (3 Bft) 100,00 %
27.05.2022 16:56 19,2 C 23,3 C 15,6 C 54 % 1021,5 hPa 0,0 l/m 2 min 0 min 726 W/m 32,2 km/h (5 Bft) 100,00 %
27.05.2022 16:58 19,2 C 23,3 C 15,6 C 53 % 1021,5 hPa 0,0 l/m 2 min 0 min 722 W/m 35,4 km/h (5 Bft) 100,00 %
27.05.2022 17:00 19,2 C 23,9 C 16,1 C 53 % 1021,4 hPa 0,0 l/m 2 min 0 min 732 W/m 22,5 km/h (4 Bft) 100,00 %
27.05.2022 17:02 19,2 C 23,9 C 16,1 C 51 % 1021,5 hPa 0,0 l/m 2 min 0 min 716 W/m 35,4 km/h (5 Bft) 100,00 %
27.05.2022 17:04 19,2 C 23,9 C 16,1 C 51 % 1021,5 hPa 0,0 l/m 2 min 0 min 703 W/m 19,3 km/h (3 Bft) 100,00 %
27.05.2022 17:06 19,3 C 23,9 C 16,1 C 53 % 1021,4 hPa 0,0 l/m 2 min 0 min 717 W/m 19,3 km/h (3 Bft) 100,00 %
27.05.2022 17:08 19,3 C 23,9 C 16,1 C 53 % 1021,5 hPa 0,0 l/m 2 min 0 min 711 W/m 16,1 km/h (3 Bft) 100,00 %
27.05.2022 17:10 19,4 C 23,9 C 16,1 C 52 % 1021,5 hPa 0,0 l/m 2 min 0 min 691 W/m 32,2 km/h (5 Bft) 100,00 %
27.05.2022 17:12 19,4 C 23,3 C 15,6 C 51 % 1021,5 hPa 0,0 l/m 2 min 0 min 681 W/m 19,3 km/h (3 Bft) 100,00 %
27.05.2022 17:14 19,4 C 23,3 C 16,1 C 51 % 1021,5 hPa 0,0 l/m 2 min 0 min 688 W/m 35,4 km/h (5 Bft) 100,00 %
27.05.2022 17:16 19,3 C 23,3 C 15,6 C 51 % 1021,4 hPa 0,0 l/m 2 min 0 min 674 W/m 25,7 km/h (4 Bft) 100,00 %
27.05.2022 17:18 19,2 C 23,3 C 15,6 C 52 % 1021,4 hPa 0,0 l/m 2 min 0 min 666 W/m 22,5 km/h (4 Bft) 100,00 %
27.05.2022 17:20 19,2 C 23,3 C 15,6 C 52 % 1021,4 hPa 0,0 l/m 2 min 0 min 670 W/m 25,7 km/h (4 Bft) 100,00 %
27.05.2022 17:22 19,2 C 23,3 C 16,1 C 53 % 1021,5 hPa 0,0 l/m 2 min 0 min 678 W/m 32,2 km/h (5 Bft) 100,00 %
27.05.2022 17:24 19,2 C 23,3 C 15,6 C 52 % 1021,5 hPa 0,0 l/m 2 min 0 min 670 W/m 22,5 km/h (4 Bft) 100,00 %
27.05.2022 17:26 19,2 C 23,3 C 15,6 C 52 % 1021,5 hPa 0,0 l/m 2 min 0 min 665 W/m 22,5 km/h (4 Bft) 100,00 %
27.05.2022 17:28 19,2 C 23,3 C 15,6 C 51 % 1021,4 hPa 0,0 l/m 2 min 0 min 651 W/m 29,0 km/h (5 Bft) 100,00 %
27.05.2022 17:30 19,2 C 22,8 C 15,6 C 50 % 1021,5 hPa 0,0 l/m 2 min 0 min 632 W/m 22,5 km/h (4 Bft) 100,00 %
27.05.2022 17:32 19,2 C 23,3 C 16,1 C 52 % 1021,6 hPa 0,0 l/m 2 min 0 min 638 W/m 25,7 km/h (4 Bft) 97,87 %
27.05.2022 17:34 19,2 C 22,8 C 15,6 C 50 % 1021,4 hPa 0,0 l/m 2 min 0 min 623 W/m 25,7 km/h (4 Bft) 97,87 %
27.05.2022 17:36 19,2 C 22,8 C 15,6 C 51 % 1021,4 hPa 0,0 l/m 2 min 0 min 646 W/m 22,5 km/h (4 Bft) 100,00 %
27.05.2022 17:38 19,1 C 22,8 C 15,6 C 52 % 1021,5 hPa 0,0 l/m 2 min 0 min 656 W/m 22,5 km/h (4 Bft) 100,00 %
27.05.2022 17:40 19,2 C 22,8 C 16,1 C 53 % 1021,5 hPa 0,0 l/m 2 min 0 min 636 W/m 29,0 km/h (5 Bft) 97,83 %
27.05.2022 17:42 19,1 C 22,2 C 15,6 C 53 % 1021,5 hPa 0,0 l/m 2 min 0 min 635 W/m 16,1 km/h (3 Bft) 100,00 %
27.05.2022 17:44 19,1 C 21,7 C 15,6 C 53 % 1021,6 hPa 0,0 l/m 2 min 0 min 595 W/m 29,0 km/h (5 Bft) 100,00 %
27.05.2022 17:46 18,9 C 19,4 C 15,0 C 52 % 1021,6 hPa 0,0 l/m 2 min 0 min 338 W/m 32,2 km/h (5 Bft) 97,87 %
27.05.2022 17:48 18,7 C 20,0 C 15,0 C 52 % 1021,5 hPa 0,0 l/m 0 min 0 min 81 W/m 35,4 km/h (5 Bft) 97,87 %
27.05.2022 17:50 18,6 C 21,7 C 15,0 C 53 % 1021,5 hPa 0,0 l/m 0 min 0 min 257 W/m 19,3 km/h (3 Bft) 95,74 %
27.05.2022 17:53 18,6 C 22,8 C 15,6 C 54 % 1021,6 hPa 0,0 l/m 3 min 0 min 563 W/m 22,5 km/h (4 Bft) 92,86 %
27.05.2022 17:54 18,6 C 22,2 C 15,6 C 53 % 1021,6 hPa 0,0 l/m 1 min 0 min 540 W/m 25,7 km/h (4 Bft) 100,00 %
27.05.2022 17:56 18,6 C 22,2 C 15,6 C 52 % 1021,5 hPa 0,0 l/m 2 min 0 min 543 W/m 22,5 km/h (4 Bft) 93,62 %
27.05.2022 17:58 18,4 C 21,7 C 15,0 C 52 % 1021,7 hPa 0,0 l/m 2 min 0 min 549 W/m 29,0 km/h (5 Bft) 95,74 %
27.05.2022 18:00 18,4 C 22,2 C 15,0 C 52 % 1021,7 hPa 0,0 l/m 2 min 0 min 556 W/m 25,7 km/h (4 Bft) 95,74 %
27.05.2022 18:02 18,3 C 21,1 C 15,0 C 53 % 1021,5 hPa 0,0 l/m 2 min 0 min 541 W/m 25,7 km/h (4 Bft) 94,29 %
27.05.2022 18:04 18,3 C 20,0 C 15,0 C 53 % 1021,7 hPa 0,0 l/m 2 min 0 min 357 W/m 19,3 km/h (3 Bft) 95,74 %
27.05.2022 18:08 17,8 C 18,9 C 13,9 C 53 % 1021,8 hPa 0,0 l/m 0 min 0 min 165 W/m 32,2 km/h (5 Bft) 95,96 %
27.05.2022 18:10 17,7 C 18,9 C 13,9 C 54 % 1021,7 hPa 0,0 l/m 0 min 0 min 175 W/m 29,0 km/h (5 Bft) 95,74 %
27.05.2022 18:12 17,7 C 20,6 C 14,4 C 54 % 1021,7 hPa 0,0 l/m 2 min 0 min 434 W/m 19,3 km/h (3 Bft) 95,12 %
27.05.2022 18:14 17,8 C 21,1 C 15,0 C 54 % 1021,8 hPa 0,0 l/m 2 min 0 min 526 W/m 38,6 km/h (5 Bft) 92,45 %
27.05.2022 18:16 17,9 C 20,6 C 15,0 C 54 % 1021,7 hPa 0,0 l/m 2 min 0 min 507 W/m 35,4 km/h (5 Bft) 97,56 %
27.05.2022 18:18 18,0 C 20,6 C 15,0 C 54 % 1021,7 hPa 0,0 l/m 2 min 0 min 416 W/m 35,4 km/h (5 Bft) 91,49 %
27.05.2022 18:20 18,0 C 21,1 C 15,0 C 54 % 1021,8 hPa 0,0 l/m 0 min 0 min 135 W/m 25,7 km/h (4 Bft) 93,48 %
27.05.2022 18:22 18,0 C 22,2 C 15,0 C 54 % 1021,7 hPa 0,0 l/m 2 min 0 min 458 W/m 22,5 km/h (4 Bft) 95,74 %
27.05.2022 18:24 18,1 C 22,8 C 15,6 C 54 % 1021,8 hPa 0,0 l/m 2 min 0 min 470 W/m 25,7 km/h (4 Bft) 95,74 %
27.05.2022 18:26 18,2 C 22,2 C 15,6 C 54 % 1021,9 hPa 0,0 l/m 2 min 0 min 471 W/m 35,4 km/h (5 Bft) 95,74 %
27.05.2022 18:28 18,2 C 22,2 C 15,6 C 55 % 1021,8 hPa 0,0 l/m 2 min 0 min 471 W/m 19,3 km/h (3 Bft) 95,74 %
27.05.2022 18:30 18,2 C 22,2 C 15,0 C 55 % 1021,9 hPa 0,0 l/m 2 min 0 min 465 W/m 19,3 km/h (3 Bft) 97,87 %
27.05.2022 18:32 18,2 C 23,3 C 15,6 C 56 % 1021,8 hPa 0,0 l/m 2 min 0 min 443 W/m 25,7 km/h (4 Bft) 100,00 %
27.05.2022 18:34 18,3 C 22,2 C 15,6 C 55 % 1022,0 hPa 0,0 l/m 2 min 0 min 431 W/m 29,0 km/h (5 Bft) 97,87 %
27.05.2022 18:36 18,2 C 22,2 C 15,0 C 55 % 1021,9 hPa 0,0 l/m 2 min 0 min 418 W/m 25,7 km/h (4 Bft) 100,00 %
27.05.2022 18:38 18,2 C 22,2 C 15,0 C 55 % 1021,9 hPa 0,0 l/m 2 min 0 min 408 W/m 22,5 km/h (4 Bft) 97,87 %
27.05.2022 18:40 18,2 C 22,8 C 15,0 C 55 % 1022,0 hPa 0,0 l/m 2 min 0 min 406 W/m 22,5 km/h (4 Bft) 100,00 %
27.05.2022 18:42 18,2 C 22,2 C 15,0 C 55 % 1022,0 hPa 0,0 l/m 2 min 0 min 400 W/m 38,6 km/h (5 Bft) 100,00 %
27.05.2022 18:44 18,1 C 21,7 C 15,0 C 54 % 1022,1 hPa 0,0 l/m 2 min 0 min 395 W/m 16,1 km/h (3 Bft) 97,87 %
27.05.2022 18:46 18,1 C 21,7 C 15,0 C 54 % 1022,0 hPa 0,0 l/m 2 min 0 min 403 W/m 19,3 km/h (3 Bft) 100,00 %
27.05.2022 18:48 17,9 C 21,1 C 14,4 C 56 % 1022,0 hPa 0,0 l/m 2 min 0 min 382 W/m 19,3 km/h (3 Bft) 97,87 %
27.05.2022 18:50 17,9 C 21,7 C 14,4 C 56 % 1022,0 hPa 0,0 l/m 2 min 0 min 376 W/m 25,7 km/h (4 Bft) 100,00 %
27.05.2022 18:52 17,9 C 21,7 C 15,0 C 56 % 1022,0 hPa 0,0 l/m 2 min 0 min 368 W/m 32,2 km/h (5 Bft) 100,00 %
27.05.2022 18:54 17,9 C 21,1 C 15,0 C 55 % 1022,1 hPa 0,0 l/m 2 min 0 min 370 W/m 25,7 km/h (4 Bft) 100,00 %
27.05.2022 18:56 17,8 C 21,7 C 14,4 C 55 % 1022,1 hPa 0,0 l/m 2 min 0 min 362 W/m 22,5 km/h (4 Bft) 100,00 %
27.05.2022 18:58 17,8 C 21,7 C 14,4 C 55 % 1022,2 hPa 0,0 l/m 2 min 0 min 356 W/m 16,1 km/h (3 Bft) 97,87 %
27.05.2022 19:00 17,8 C 21,1 C 14,4 C 56 % 1022,1 hPa 0,0 l/m 2 min 0 min 350 W/m 32,2 km/h (5 Bft) 97,87 %
27.05.2022 19:02 17,7 C 20,6 C 13,9 C 55 % 1022,1 hPa 0,0 l/m 2 min 0 min 341 W/m 41,8 km/h (6 Bft) 100,00 %
27.05.2022 19:04 17,7 C 20,0 C 13,3 C 55 % 1022,2 hPa 0,0 l/m 2 min 0 min 332 W/m 35,4 km/h (5 Bft) 100,00 %
27.05.2022 19:06 17,5 C 19,4 C 13,3 C 55 % 1022,2 hPa 0,0 l/m 2 min 0 min 321 W/m 25,7 km/h (4 Bft) 100,00 %
27.05.2022 19:08 17,4 C 19,4 C 12,8 C 55 % 1022,1 hPa 0,0 l/m 2 min 0 min 318 W/m 16,1 km/h (3 Bft) 100,00 %
27.05.2022 19:10 17,3 C 18,9 C 12,8 C 55 % 1022,1 hPa 0,0 l/m 2 min 0 min 316 W/m 25,7 km/h (4 Bft) 97,87 %
27.05.2022 19:12 17,2 C 18,3 C 12,8 C 56 % 1022,1 hPa 0,0 l/m 2 min 0 min 313 W/m 25,7 km/h (4 Bft) 100,00 %
27.05.2022 19:14 17,2 C 17,8 C 12,8 C 56 % 1022,2 hPa 0,0 l/m 2 min 0 min 305 W/m 25,7 km/h (4 Bft) 100,00 %
27.05.2022 19:16 17,1 C 17,2 C 12,8 C 56 % 1022,2 hPa 0,0 l/m 2 min 0 min 297 W/m 32,2 km/h (5 Bft) 100,00 %
27.05.2022 19:18 17,0 C 16,7 C 12,8 C 56 % 1022,1 hPa 0,0 l/m 2 min 0 min 288 W/m 32,2 km/h (5 Bft) 97,83 %
27.05.2022 19:20 16,9 C 16,7 C 12,8 C 56 % 1022,2 hPa 0,0 l/m 2 min 0 min 280 W/m 29,0 km/h (5 Bft) 97,87 %
27.05.2022 19:22 16,8 C 16,7 C 12,8 C 56 % 1022,2 hPa 0,0 l/m 2 min 0 min 275 W/m 22,5 km/h (4 Bft) 95,74 %
27.05.2022 19:24 16,8 C 16,7 C 12,8 C 56 % 1022,3 hPa 0,0 l/m 2 min 0 min 267 W/m 29,0 km/h (5 Bft) 97,87 %
27.05.2022 19:26 16,7 C 16,1 C 12,8 C 56 % 1022,2 hPa 0,0 l/m 2 min 0 min 261 W/m 22,5 km/h (4 Bft) 97,87 %
27.05.2022 19:28 16,7 C 16,1 C 12,8 C 57 % 1022,1 hPa 0,0 l/m 2 min 0 min 249 W/m 25,7 km/h (4 Bft) 93,62 %
27.05.2022 19:30 16,6 C 16,1 C 12,8 C 57 % 1022,2 hPa 0,0 l/m 2 min 0 min 245 W/m 16,1 km/h (3 Bft) 97,83 %
27.05.2022 19:32 16,6 C 16,1 C 12,2 C 57 % 1022,1 hPa 0,0 l/m 2 min 0 min 242 W/m 16,1 km/h (3 Bft) 93,75 %
27.05.2022 19:34 16,6 C 16,1 C 12,2 C 58 % 1022,2 hPa 0,0 l/m 2 min 0 min 232 W/m 25,7 km/h (4 Bft) 97,87 %
27.05.2022 19:36 16,6 C 16,1 C 12,2 C 57 % 1022,2 hPa 0,0 l/m 2 min 0 min 224 W/m 25,7 km/h (4 Bft) 97,87 %
27.05.2022 19:38 16,4 C 15,6 C 12,2 C 57 % 1022,2 hPa 0,0 l/m 2 min 0 min 215 W/m 35,4 km/h (5 Bft) 95,74 %
27.05.2022 19:40 16,3 C 15,6 C 11,7 C 57 % 1022,2 hPa 0,0 l/m 2 min 0 min 207 W/m 25,7 km/h (4 Bft) 97,78 %
27.05.2022 19:42 16,2 C 15,6 C 11,7 C 58 % 1022,2 hPa 0,0 l/m 2 min 0 min 199 W/m 25,7 km/h (4 Bft) 95,65 %
27.05.2022 19:44 16,2 C 15,6 C 12,2 C 58 % 1022,2 hPa 0,0 l/m 2 min 0 min 143 W/m 16,1 km/h (3 Bft) 97,87 %
27.05.2022 19:46 16,1 C 15,6 C 11,7 C 58 % 1022,3 hPa 0,0 l/m 0 min 0 min 68 W/m 25,7 km/h (4 Bft) 97,87 %
27.05.2022 19:48 16,1 C 15,6 C 11,7 C 57 % 1022,3 hPa 0,0 l/m 0 min 0 min 56 W/m 35,4 km/h (5 Bft) 95,74 %
27.05.2022 19:50 15,9 C 15,6 C 11,7 C 57 % 1022,3 hPa 0,0 l/m 0 min 0 min 53 W/m 25,7 km/h (4 Bft) 97,87 %
27.05.2022 19:52 15,9 C 15,6 C 11,7 C 58 % 1022,3 hPa 0,0 l/m 0 min 0 min 52 W/m 22,5 km/h (4 Bft) 93,62 %
27.05.2022 19:54 15,8 C 15,6 C 11,7 C 57 % 1022,2 hPa 0,0 l/m 0 min 0 min 47 W/m 32,2 km/h (5 Bft) 97,83 %
27.05.2022 19:56 15,8 C 15,0 C 11,7 C 57 % 1022,3 hPa 0,0 l/m 0 min 0 min 55 W/m 22,5 km/h (4 Bft) 97,87 %
27.05.2022 19:58 15,7 C 15,0 C 11,7 C 58 % 1022,3 hPa 0,0 l/m 0 min 0 min 56 W/m 25,7 km/h (4 Bft) 97,87 %
27.05.2022 20:00 15,6 C 15,0 C 11,7 C 58 % 1022,3 hPa 0,0 l/m 0 min 0 min 57 W/m 35,4 km/h (5 Bft) 95,74 %
27.05.2022 20:02 15,6 C 15,0 C 11,7 C 58 % 1022,4 hPa 0,0 l/m 0 min 0 min 54 W/m 22,5 km/h (4 Bft) 95,83 %
27.05.2022 20:04 15,6 C 15,0 C 11,7 C 59 % 1022,4 hPa 0,0 l/m 0 min 0 min 53 W/m 19,3 km/h (3 Bft) 93,48 %
27.05.2022 20:06 15,6 C 15,0 C 11,7 C 59 % 1022,4 hPa 0,0 l/m 0 min 0 min 53 W/m 22,5 km/h (4 Bft) 95,74 %
27.05.2022 20:08 15,6 C 15,0 C 11,7 C 59 % 1022,4 hPa 0,0 l/m 0 min 0 min 54 W/m 12,9 km/h (3 Bft) 97,87 %
27.05.2022 20:10 15,5 C 15,0 C 11,7 C 59 % 1022,5 hPa 0,0 l/m 0 min 0 min 53 W/m 29,0 km/h (5 Bft) 97,87 %
27.05.2022 20:12 15,4 C 15,0 C 11,7 C 59 % 1022,5 hPa 0,0 l/m 0 min 0 min 48 W/m 22,5 km/h (4 Bft) 95,74 %
27.05.2022 20:14 15,4 C 14,4 C 11,1 C 59 % 1022,4 hPa 0,0 l/m 0 min 0 min 45 W/m 29,0 km/h (5 Bft) 97,87 %
27.05.2022 20:16 15,4 C 14,4 C 11,1 C 59 % 1022,4 hPa 0,0 l/m 0 min 0 min 44 W/m 29,0 km/h (5 Bft) 97,87 %
27.05.2022 20:18 15,3 C 14,4 C 11,1 C 59 % 1022,5 hPa 0,0 l/m 0 min 0 min 44 W/m 25,7 km/h (4 Bft) 95,65 %
27.05.2022 20:20 15,3 C 14,4 C 11,1 C 59 % 1022,5 hPa 0,0 l/m 0 min 0 min 41 W/m 22,5 km/h (4 Bft) 93,62 %
27.05.2022 20:22 15,2 C 14,4 C 11,1 C 59 % 1022,6 hPa 0,0 l/m 0 min 0 min 38 W/m 16,1 km/h (3 Bft) 97,87 %
27.05.2022 20:24 15,2 C 14,4 C 11,1 C 59 % 1022,6 hPa 0,0 l/m 0 min 0 min 33 W/m 25,7 km/h (4 Bft) 93,62 %
27.05.2022 20:26 15,1 C 14,4 C 11,1 C 60 % 1022,6 hPa 0,0 l/m 0 min 0 min 30 W/m 12,9 km/h (3 Bft) 97,87 %
27.05.2022 20:28 15,1 C 14,4 C 11,1 C 60 % 1022,6 hPa 0,0 l/m 0 min 0 min 28 W/m 16,1 km/h (3 Bft) 95,65 %
27.05.2022 20:30 15,1 C 14,4 C 11,1 C 60 % 1022,7 hPa 0,0 l/m 0 min 0 min 28 W/m 19,3 km/h (3 Bft) 95,74 %
27.05.2022 20:32 15,0 C 14,4 C 11,1 C 60 % 1022,7 hPa 0,0 l/m 0 min 0 min 28 W/m 25,7 km/h (4 Bft) 97,87 %
27.05.2022 20:34 15,0 C 14,4 C 10,6 C 60 % 1022,7 hPa 0,0 l/m 0 min 0 min 31 W/m 29,0 km/h (5 Bft) 95,74 %
27.05.2022 20:36 14,9 C 13,9 C 10,6 C 60 % 1022,7 hPa 0,0 l/m 0 min 0 min 34 W/m 16,1 km/h (3 Bft) 97,87 %
27.05.2022 20:38 14,8 C 13,9 C 10,6 C 61 % 1022,7 hPa 0,0 l/m 0 min 0 min 28 W/m 19,3 km/h (3 Bft) 100,00 %
27.05.2022 20:40 14,8 C 13,9 C 10,6 C 61 % 1022,7 hPa 0,0 l/m 0 min 0 min 25 W/m 22,5 km/h (4 Bft) 97,96 %
27.05.2022 20:42 14,7 C 13,9 C 10,6 C 62 % 1022,7 hPa 0,0 l/m 0 min 0 min 27 W/m 19,3 km/h (3 Bft) 97,87 %
27.05.2022 20:44 14,7 C 13,9 C 10,6 C 62 % 1022,7 hPa 0,0 l/m 0 min 0 min 30 W/m 16,1 km/h (3 Bft) 97,87 %
27.05.2022 20:46 14,6 C 13,9 C 10,6 C 62 % 1022,8 hPa 0,0 l/m 0 min 0 min 32 W/m 35,4 km/h (5 Bft) 97,87 %
27.05.2022 20:48 14,6 C 13,9 C 10,6 C 62 % 1022,8 hPa 0,0 l/m 0 min 0 min 31 W/m 22,5 km/h (4 Bft) 97,87 %
27.05.2022 20:50 14,5 C 13,9 C 10,6 C 62 % 1022,7 hPa 0,0 l/m 0 min 0 min 26 W/m 12,9 km/h (3 Bft) 95,65 %
27.05.2022 20:52 14,5 C 13,9 C 10,6 C 62 % 1022,8 hPa 0,0 l/m 0 min 0 min 25 W/m 16,1 km/h (3 Bft) 97,87 %
27.05.2022 20:54 14,5 C 13,9 C 10,6 C 63 % 1022,8 hPa 0,0 l/m 0 min 0 min 25 W/m 6,4 km/h (2 Bft) 97,87 %
27.05.2022 20:56 14,4 C 13,9 C 10,6 C 63 % 1022,8 hPa 0,0 l/m 0 min 0 min 24 W/m 19,3 km/h (3 Bft) 97,87 %
27.05.2022 20:58 14,4 C 13,9 C 10,0 C 63 % 1022,9 hPa 0,0 l/m 0 min 0 min 22 W/m 22,5 km/h (4 Bft) 97,87 %
27.05.2022 21:00 14,3 C 13,9 C 10,6 C 63 % 1022,8 hPa 0,0 l/m 0 min 0 min 20 W/m 12,9 km/h (3 Bft) 97,87 %
27.05.2022 21:02 14,3 C 13,9 C 10,6 C 63 % 1022,8 hPa 0,0 l/m 0 min 0 min 18 W/m 22,5 km/h (4 Bft) 97,87 %
27.05.2022 21:04 14,3 C 13,3 C 10,6 C 63 % 1022,8 hPa 0,0 l/m 0 min 0 min 18 W/m 22,5 km/h (4 Bft) 97,87 %
27.05.2022 21:06 14,3 C 13,3 C 10,6 C 63 % 1022,8 hPa 0,0 l/m 0 min 0 min 16 W/m 12,9 km/h (3 Bft) 95,74 %
27.05.2022 21:08 14,3 C 13,3 C 10,0 C 63 % 1022,9 hPa 0,0 l/m 0 min 0 min 15 W/m 19,3 km/h (3 Bft) 97,87 %
27.05.2022 21:10 14,3 C 13,3 C 10,0 C 63 % 1022,9 hPa 0,0 l/m 0 min 0 min 14 W/m 22,5 km/h (4 Bft) 97,87 %
27.05.2022 21:12 14,2 C 13,3 C 10,0 C 63 % 1022,9 hPa 0,0 l/m 0 min 0 min 13 W/m 16,1 km/h (3 Bft) 97,87 %
27.05.2022 21:14 14,1 C 13,3 C 10,0 C 64 % 1022,9 hPa 0,0 l/m 0 min 0 min 12 W/m 19,3 km/h (3 Bft) 97,87 %
27.05.2022 21:16 14,1 C 13,3 C 10,0 C 64 % 1022,9 hPa 0,0 l/m 0 min 0 min 12 W/m 16,1 km/h (3 Bft) 97,83 %
27.05.2022 21:18 14,1 C 13,3 C 10,0 C 64 % 1023,0 hPa 0,0 l/m 0 min 0 min 11 W/m 16,1 km/h (3 Bft) 97,87 %
27.05.2022 21:20 14,0 C 13,3 C 10,0 C 64 % 1023,0 hPa 0,0 l/m 0 min 0 min 10 W/m 9,7 km/h (2 Bft) 91,49 %
27.05.2022 21:22 13,9 C 12,8 C 10,0 C 65 % 1022,9 hPa 0,0 l/m 0 min 0 min 9 W/m 9,7 km/h (2 Bft) 95,74 %
27.05.2022 21:24 13,9 C 13,3 C 10,0 C 65 % 1023,0 hPa 0,0 l/m 0 min 0 min 9 W/m 12,9 km/h (3 Bft) 95,74 %
27.05.2022 21:26 13,8 C 12,8 C 9,4 C 65 % 1023,0 hPa 0,0 l/m 0 min 0 min 7 W/m 16,1 km/h (3 Bft) 80,43 %
27.05.2022 21:28 13,8 C 12,8 C 9,4 C 65 % 1023,0 hPa 0,0 l/m 0 min 0 min 7 W/m 6,4 km/h (2 Bft) 82,98 %
27.05.2022 21:30 13,8 C 12,8 C 10,0 C 65 % 1023,1 hPa 0,0 l/m 0 min 0 min 5 W/m 9,7 km/h (2 Bft) 78,72 %
27.05.2022 21:32 13,7 C 12,8 C 9,4 C 65 % 1023,0 hPa 0,0 l/m 0 min 0 min 5 W/m 12,9 km/h (3 Bft) 80,85 %
27.05.2022 21:34 13,7 C 12,8 C 9,4 C 65 % 1023,0 hPa 0,0 l/m 0 min 0 min 5 W/m 9,7 km/h (2 Bft) 74,47 %
27.05.2022 21:36 13,7 C 12,8 C 9,4 C 65 % 1023,0 hPa 0,0 l/m 0 min 0 min 2 W/m 9,7 km/h (2 Bft) 74,47 %
27.05.2022 21:38 13,6 C 12,8 C 9,4 C 65 % 1023,1 hPa 0,0 l/m 0 min 0 min 0 W/m 6,4 km/h (2 Bft) 91,30 %
27.05.2022 21:40 13,6 C 12,8 C 9,4 C 66 % 1023,0 hPa 0,0 l/m 0 min 0 min 0 W/m 16,1 km/h (3 Bft) 85,11 %
27.05.2022 21:42 13,5 C 12,8 C 9,4 C 66 % 1023,1 hPa 0,0 l/m 0 min 0 min 0 W/m 9,7 km/h (2 Bft) 87,23 %
27.05.2022 21:44 13,5 C 12,8 C 9,4 C 66 % 1023,1 hPa 0,0 l/m 0 min 0 min 0 W/m 12,9 km/h (3 Bft) 82,98 %
27.05.2022 21:46 13,4 C 12,8 C 9,4 C 66 % 1023,1 hPa 0,0 l/m 0 min 0 min 0 W/m 12,9 km/h (3 Bft) 87,23 %
27.05.2022 21:48 13,4 C 12,2 C 9,4 C 66 % 1023,1 hPa 0,0 l/m 0 min 0 min 0 W/m 6,4 km/h (2 Bft) 91,49 %
27.05.2022 21:50 13,4 C 12,2 C 9,4 C 66 % 1023,1 hPa 0,0 l/m 0 min 0 min 0 W/m 9,7 km/h (2 Bft) 97,83 %
27.05.2022 21:52 13,3 C 12,2 C 9,4 C 66 % 1023,1 hPa 0,0 l/m 0 min 0 min 0 W/m 6,4 km/h (2 Bft) 97,87 %
27.05.2022 21:54 13,3 C 12,2 C 8,9 C 67 % 1023,1 hPa 0,0 l/m 0 min 0 min 0 W/m 6,4 km/h (2 Bft) 95,74 %
27.05.2022 21:56 13,2 C 12,2 C 8,9 C 67 % 1023,1 hPa 0,0 l/m 0 min 0 min 0 W/m 6,4 km/h (2 Bft) 95,74 %
27.05.2022 21:58 13,2 C 12,2 C 8,9 C 68 % 1023,1 hPa 0,0 l/m 0 min 0 min 0 W/m 3,2 km/h (1 Bft) 95,74 %
27.05.2022 22:00 13,1 C 11,7 C 8,9 C 68 % 1023,1 hPa 0,0 l/m 0 min 0 min 0 W/m 3,2 km/h (1 Bft) 95,74 %
27.05.2022 22:02 13,1 C 11,7 C 8,9 C 68 % 1023,1 hPa 0,0 l/m 0 min 0 min 0 W/m 3,2 km/h (1 Bft) 95,74 %
27.05.2022 22:04 13,0 C 11,7 C 8,9 C 68 % 1023,1 hPa 0,0 l/m 0 min 0 min 0 W/m 6,4 km/h (2 Bft) 95,74 %
27.05.2022 22:06 13,0 C 11,7 C 8,9 C 69 % 1023,1 hPa 0,0 l/m 0 min 0 min 0 W/m 6,4 km/h (2 Bft) 97,87 %
27.05.2022 22:08 12,9 C 11,7 C 8,9 C 69 % 1023,1 hPa 0,0 l/m 0 min 0 min 0 W/m 3,2 km/h (1 Bft) 95,74 %
27.05.2022 22:10 12,9 C 11,7 C 8,9 C 69 % 1023,1 hPa 0,0 l/m 0 min 0 min 0 W/m 9,7 km/h (2 Bft) 95,74 %
27.05.2022 22:12 12,9 C 11,7 C 8,9 C 69 % 1023,1 hPa 0,0 l/m 0 min 0 min 0 W/m 6,4 km/h (2 Bft) 91,49 %
27.05.2022 22:14 12,9 C 11,7 C 8,9 C 69 % 1023,2 hPa 0,0 l/m 0 min 0 min 0 W/m 3,2 km/h (1 Bft) 95,65 %
27.05.2022 22:16 12,8 C 11,7 C 8,3 C 69 % 1023,1 hPa 0,0 l/m 0 min 0 min 0 W/m 3,2 km/h (1 Bft) 95,74 %
27.05.2022 22:18 12,8 C 11,7 C 8,3 C 69 % 1023,1 hPa 0,0 l/m 0 min 0 min 0 W/m 3,2 km/h (1 Bft) 95,74 %
27.05.2022 22:20 12,8 C 11,7 C 8,3 C 69 % 1023,1 hPa 0,0 l/m 0 min 0 min 0 W/m 3,2 km/h (1 Bft) 95,74 %
27.05.2022 22:22 12,7 C 11,7 C 8,3 C 70 % 1023,1 hPa 0,0 l/m 0 min 0 min 0 W/m 3,2 km/h (1 Bft) 97,87 %
27.05.2022 22:24 12,7 C 11,7 C 8,3 C 70 % 1023,1 hPa 0,0 l/m 0 min 0 min 0 W/m 3,2 km/h (1 Bft) 95,74 %
27.05.2022 22:26 12,7 C 11,7 C 8,3 C 70 % 1023,1 hPa 0,0 l/m 0 min 0 min 0 W/m 3,2 km/h (1 Bft) 97,83 %
27.05.2022 22:28 12,6 C 11,7 C 8,3 C 70 % 1023,1 hPa 0,0 l/m 0 min 0 min 0 W/m 6,4 km/h (2 Bft) 95,74 %
27.05.2022 22:30 12,6 C 11,7 C 8,3 C 70 % 1023,1 hPa 0,0 l/m 0 min 0 min 0 W/m 6,4 km/h (2 Bft) 95,74 %
27.05.2022 22:32 12,6 C 11,7 C 8,3 C 70 % 1023,1 hPa 0,0 l/m 0 min 0 min 0 W/m 6,4 km/h (2 Bft) 97,87 %
27.05.2022 22:34 12,6 C 11,7 C 8,3 C 70 % 1023,0 hPa 0,0 l/m 0 min 0 min 0 W/m 3,2 km/h (1 Bft) 97,87 %
27.05.2022 22:36 12,5 C 11,1 C 8,3 C 70 % 1023,1 hPa 0,0 l/m 0 min 0 min 0 W/m 3,2 km/h (1 Bft) 100,00 %
27.05.2022 22:38 12,4 C 11,1 C 8,3 C 70 % 1023,1 hPa 0,0 l/m 0 min 0 min 0 W/m 3,2 km/h (1 Bft) 100,00 %
27.05.2022 22:40 12,4 C 11,1 C 8,3 C 71 % 1023,1 hPa 0,0 l/m 0 min 0 min 0 W/m 3,2 km/h (1 Bft) 100,00 %
27.05.2022 22:42 12,3 C 11,1 C 8,3 C 71 % 1023,1 hPa 0,0 l/m 0 min 0 min 0 W/m 3,2 km/h (1 Bft) 100,00 %
27.05.2022 22:44 12,3 C 11,1 C 8,3 C 71 % 1023,1 hPa 0,0 l/m 0 min 0 min 0 W/m 6,4 km/h (2 Bft) 100,00 %
27.05.2022 22:46 12,3 C 11,1 C 8,3 C 71 % 1023,1 hPa 0,0 l/m 0 min 0 min 0 W/m 0,0 km/h (0 Bft) 100,00 %
27.05.2022 22:48 12,3 C 11,1 C 8,3 C 71 % 1023,1 hPa 0,0 l/m 0 min 0 min 0 W/m 6,4 km/h (2 Bft) 97,83 %
27.05.2022 22:50 12,2 C 11,1 C 7,8 C 71 % 1023,1 hPa 0,0 l/m 0 min 0 min 0 W/m 3,2 km/h (1 Bft) 100,00 %
27.05.2022 22:52 12,2 C 11,1 C 7,8 C 71 % 1023,1 hPa 0,0 l/m 0 min 0 min 0 W/m 6,4 km/h (2 Bft) 100,00 %
27.05.2022 22:54 12,2 C 11,1 C 7,8 C 72 % 1023,1 hPa 0,0 l/m 0 min 0 min 0 W/m 3,2 km/h (1 Bft) 100,00 %
27.05.2022 22:56 12,2 C 11,1 C 7,8 C 72 % 1023,1 hPa 0,0 l/m 0 min 0 min 0 W/m 6,4 km/h (2 Bft) 100,00 %
27.05.2022 22:58 12,1 C 11,1 C 7,8 C 72 % 1023,1 hPa 0,0 l/m 0 min 0 min 0 W/m 3,2 km/h (1 Bft) 100,00 %
27.05.2022 23:00 12,1 C 11,1 C 7,8 C 72 % 1023,1 hPa 0,0 l/m 0 min 0 min 0 W/m 3,2 km/h (1 Bft) 100,00 %
27.05.2022 23:02 12,1 C 11,1 C 7,8 C 72 % 1023,1 hPa 0,0 l/m 0 min 0 min 0 W/m 3,2 km/h (1 Bft) 100,00 %
27.05.2022 23:04 12,1 C 11,1 C 7,8 C 72 % 1023,1 hPa 0,0 l/m 0 min 0 min 0 W/m 3,2 km/h (1 Bft) 97,83 %
27.05.2022 23:06 12,0 C 11,1 C 7,8 C 73 % 1023,0 hPa 0,0 l/m 0 min 0 min 0 W/m 3,2 km/h (1 Bft) 98,31 %
27.05.2022 23:08 12,0 C 11,1 C 7,8 C 73 % 1023,0 hPa 0,0 l/m 0 min 0 min 0 W/m 3,2 km/h (1 Bft) 100,00 %
27.05.2022 23:10 12,0 C 11,1 C 7,8 C 73 % 1023,0 hPa 0,0 l/m 0 min 0 min 0 W/m 6,4 km/h (2 Bft) 100,00 %
27.05.2022 23:12 11,9 C 11,1 C 7,8 C 73 % 1023,0 hPa 0,0 l/m 0 min 0 min 0 W/m 3,2 km/h (1 Bft) 100,00 %
27.05.2022 23:14 11,9 C 11,1 C 7,8 C 73 % 1023,0 hPa 0,0 l/m 0 min 0 min 0 W/m 3,2 km/h (1 Bft) 100,00 %
27.05.2022 23:16 11,9 C 10,6 C 7,8 C 73 % 1023,0 hPa 0,0 l/m 0 min 0 min 0 W/m 3,2 km/h (1 Bft) 100,00 %
27.05.2022 23:18 11,8 C 10,6 C 7,8 C 73 % 1023,0 hPa 0,0 l/m 0 min 0 min 0 W/m 3,2 km/h (1 Bft) 100,00 %
27.05.2022 23:20 11,8 C 10,6 C 7,8 C 73 % 1023,0 hPa 0,0 l/m 0 min 0 min 0 W/m 3,2 km/h (1 Bft) 100,00 %
27.05.2022 23:22 11,8 C 10,6 C 7,8 C 74 % 1022,9 hPa 0,0 l/m 0 min 0 min 0 W/m 3,2 km/h (1 Bft) 97,87 %
27.05.2022 23:24 11,8 C 10,6 C 7,8 C 74 % 1023,0 hPa 0,0 l/m 0 min 0 min 0 W/m 3,2 km/h (1 Bft) 100,00 %
27.05.2022 23:26 11,8 C 10,6 C 7,8 C 74 % 1022,9 hPa 0,0 l/m 0 min 0 min 0 W/m 0,0 km/h (0 Bft) 95,74 %
27.05.2022 23:28 11,7 C 10,6 C 7,8 C 74 % 1023,0 hPa 0,0 l/m 0 min 0 min 0 W/m 0,0 km/h (0 Bft) 97,83 %
27.05.2022 23:30 11,7 C 10,6 C 7,2 C 74 % 1023,0 hPa 0,0 l/m 0 min 0 min 0 W/m 0,0 km/h (0 Bft) 97,87 %
27.05.2022 23:32 11,7 C 10,6 C 7,8 C 74 % 1023,0 hPa 0,0 l/m 0 min 0 min 0 W/m 3,2 km/h (1 Bft) 97,87 %
27.05.2022 23:34 11,7 C 10,6 C 7,8 C 74 % 1022,9 hPa 0,0 l/m 0 min 0 min 0 W/m 3,2 km/h (1 Bft) 97,87 %
27.05.2022 23:36 11,7 C 10,6 C 7,2 C 74 % 1022,9 hPa 0,0 l/m 0 min 0 min 0 W/m 0,0 km/h (0 Bft) 97,87 %
27.05.2022 23:38 11,7 C 10,6 C 7,8 C 74 % 1022,9 hPa 0,0 l/m 0 min 0 min 0 W/m 3,2 km/h (1 Bft) 97,87 %
27.05.2022 23:40 11,7 C 10,6 C 7,8 C 74 % 1023,0 hPa 0,0 l/m 0 min 0 min 0 W/m 3,2 km/h (1 Bft) 97,83 %
27.05.2022 23:42 11,6 C 10,6 C 7,2 C 74 % 1022,9 hPa 0,0 l/m 0 min 0 min 0 W/m 3,2 km/h (1 Bft) 95,74 %
27.05.2022 23:44 11,6 C 10,6 C 7,8 C 75 % 1022,9 hPa 0,0 l/m 0 min 0 min 0 W/m 3,2 km/h (1 Bft) 97,87 %
27.05.2022 23:46 11,6 C 10,6 C 7,8 C 75 % 1022,9 hPa 0,0 l/m 0 min 0 min 0 W/m 3,2 km/h (1 Bft) 97,87 %
27.05.2022 23:48 11,6 C 10,6 C 7,8 C 75 % 1022,9 hPa 0,0 l/m 0 min 0 min 0 W/m 3,2 km/h (1 Bft) 97,87 %
27.05.2022 23:50 11,5 C 10,6 C 7,8 C 75 % 1023,0 hPa 0,0 l/m 0 min 0 min 0 W/m 6,4 km/h (2 Bft) 97,87 %
27.05.2022 23:52 11,5 C 10,6 C 7,8 C 75 % 1023,0 hPa 0,0 l/m 0 min 0 min 0 W/m 3,2 km/h (1 Bft) 95,65 %
27.05.2022 23:54 11,5 C 10,6 C 7,2 C 75 % 1023,0 hPa 0,0 l/m 0 min 0 min 0 W/m 3,2 km/h (1 Bft) 100,00 %
27.05.2022 23:56 11,5 C 10,6 C 7,2 C 75 % 1023,0 hPa 0,0 l/m 0 min 0 min 0 W/m 6,4 km/h (2 Bft) 100,00 %
27.05.2022 23:58 11,4 C 10,6 C 7,2 C 75 % 1023,1 hPa 0,0 l/m 0 min 0 min 0 W/m 3,2 km/h (1 Bft) 100,00 %
_ Min-Zeit 23:58 23:16 23:30 17:30 05:16 - - - - 22:46 09:04
Minimum _ 11,4 C 10,6 C 7,2 C 50 % 1019,8 hPa - - - - 0,0 km/h (0 Bft) 55,32 %
_ Max-Zeit 14:26 16:34 12:48 09:26 22:14 05:24 17:53 04:50 13:48 14:06 00:46
Maximum _ 20,2 C 23,9 C 23,3 C 98 % 1023,2 hPa 0,2 l/m 3 min 2 min 1151 W/m 45,1 km/h
W-NW (6 Bft)
100,00 %
Durchschnitt _ 15,8 C 16,2 C 12,4 C 75 % 1021,2 hPa #2,4 l/m #8:18 h #52 min. 410 W/m 17,0 km/h (3 Bft) 96,86 %
© 2022 W. Hausmann